| time (UTC) | temp C | wind direction | speed KPH | gust KPH | rain 1hr cm | rain 24hr cm | rain mn cm | humidity % | barometer mb |
| 20260502190752 | 23 | 0 | 6.4 | 14.5 | 0.00 | 1.85 | 0.00 | 68 | 1016.7 |
| 20260502190650 | 23 | 326 | 6.4 | 14.5 | 0.00 | 1.85 | 0.00 | 70 | 1016.8 |
| 20260502190552 | 23 | 296 | 4.8 | 14.5 | 0.00 | 1.85 | 0.00 | 68 | 1016.8 |
| 20260502190451 | 23 | 51 | 4.8 | 14.5 | 0.00 | 1.88 | 0.00 | 68 | 1016.7 |
| 20260502190351 | 23 | 52 | 4.8 | 14.5 | 0.00 | 1.88 | 0.00 | 69 | 1016.8 |
| 20260502190251 | 23 | 58 | 4.8 | 14.5 | 0.00 | 1.88 | 0.00 | 69 | 1016.7 |
| 20260502190150 | 23 | 58 | 4.8 | 14.5 | 0.00 | 1.91 | 0.00 | 69 | 1016.8 |
| 20260502190051 | 23 | 73 | 6.4 | 17.7 | 0.00 | 1.91 | 0.00 | 69 | 1016.8 |
| 20260502185951 | 23 | 347 | 4.8 | 17.7 | 0.00 | 1.96 | 0.00 | 70 | 1016.8 |
| 20260502185851 | 23 | 34 | 4.8 | 17.7 | 0.00 | 1.96 | 0.00 | 70 | 1016.7 |
| 20260502185750 | 23 | 104 | 4.8 | 17.7 | 0.00 | 1.96 | 0.00 | 69 | 1016.8 |
| 20260502185650 | 22 | 75 | 6.4 | 17.7 | 0.00 | 1.96 | 0.00 | 68 | 1016.9 |
| 20260502185550 | 22 | 28 | 6.4 | 17.7 | 0.00 | 1.96 | 0.00 | 68 | 1016.9 |
| 20260502185450 | 22 | 114 | 8.0 | 17.7 | 0.00 | 1.98 | 0.00 | 68 | 1016.8 |
| 20260502185351 | 22 | 106 | 6.4 | 17.7 | 0.00 | 2.01 | 0.00 | 68 | 1016.9 |
| 20260502185250 | 22 | 7 | 8.0 | 17.7 | 0.00 | 2.01 | 0.00 | 68 | 1016.9 |
| 20260502185151 | 22 | 24 | 8.0 | 22.5 | 0.00 | 2.01 | 0.00 | 68 | 1016.9 |
| 20260502185050 | 22 | 32 | 8.0 | 22.5 | 0.00 | 2.01 | 0.00 | 68 | 1016.9 |
| 20260502184953 | 22 | 17 | 9.7 | 22.5 | 0.00 | 2.03 | 0.00 | 68 | 1016.9 |
| 20260502184851 | 22 | 78 | 9.7 | 22.5 | 0.00 | 2.03 | 0.00 | 71 | 1016.8 |
| 20260502184750 | 22 | 85 | 9.7 | 22.5 | 0.00 | 2.06 | 0.00 | 71 | 1016.9 |
| 20260502184651 | 22 | 0 | 6.4 | 22.5 | 0.00 | 2.06 | 0.00 | 71 | 1017.0 |
| 20260502184550 | 22 | 87 | 4.8 | 22.5 | 0.00 | 2.08 | 0.00 | 71 | 1016.9 |
| 20260502184451 | 22 | 6 | 6.4 | 22.5 | 0.00 | 2.08 | 0.00 | 69 | 1017.0 |
| 20260502184352 | 22 | 104 | 11.3 | 22.5 | 0.00 | 2.11 | 0.00 | 69 | 1016.9 |
| 20260502184251 | 22 | 58 | 11.3 | 22.5 | 0.00 | 2.11 | 0.00 | 70 | 1017.0 |
| 20260502184150 | 22 | 37 | 9.7 | 19.3 | 0.00 | 2.13 | 0.00 | 71 | 1017.0 |
| 20260502184051 | 22 | 17 | 9.7 | 19.3 | 0.00 | 2.13 | 0.00 | 71 | 1017.0 |
| 20260502183951 | 22 | 90 | 8.0 | 16.1 | 0.00 | 2.13 | 0.00 | 75 | 1017.1 |
| 20260502183850 | 22 | 23 | 8.0 | 17.7 | 0.00 | 2.26 | 0.00 | 75 | 1017.0 |
| 20260502183752 | 22 | 17 | 8.0 | 17.7 | 0.00 | 2.26 | 0.00 | 80 | 1017.0 |
| 20260502183651 | 22 | 131 | 4.8 | 17.7 | 0.00 | 2.26 | 0.00 | 75 | 1017.1 |
| 20260502183551 | 22 | 35 | 6.4 | 17.7 | 0.00 | 2.26 | 0.00 | 72 | 1017.1 |
| 20260502183450 | 22 | 34 | 8.0 | 17.7 | 0.00 | 2.26 | 0.00 | 70 | 1017.0 |
| 20260502183349 | 22 | 72 | 6.4 | 17.7 | 0.00 | 2.26 | 0.00 | 70 | 1017.1 |
| 20260502183251 | 22 | 49 | 8.0 | 17.7 | 0.00 | 2.26 | 0.00 | 70 | 1017.1 |
| 20260502183150 | 22 | 72 | 8.0 | 17.7 | 0.00 | 2.26 | 0.00 | 70 | 1017.1 |
| 20260502183049 | 22 | 23 | 9.7 | 17.7 | 0.00 | 2.26 | 0.00 | 73 | 1017.1 |
| 20260502182951 | 22 | 317 | 9.7 | 17.7 | 0.00 | 2.29 | 0.00 | 73 | 1017.2 |
| 20260502182851 | 22 | 87 | 8.0 | 17.7 | 0.00 | 2.29 | 0.00 | 75 | 1017.2 |
| 20260502182751 | 22 | 72 | 4.8 | 17.7 | 0.00 | 2.29 | 0.00 | 75 | 1017.3 |
| 20260502182651 | 22 | 18 | 6.4 | 17.7 | 0.00 | 2.29 | 0.00 | 75 | 1017.1 |
| 20260502182550 | 22 | 90 | 9.7 | 17.7 | 0.00 | 2.31 | 0.00 | 76 | 1017.2 |
| 20260502182451 | 22 | 69 | 9.7 | 16.1 | 0.00 | 2.31 | 0.00 | 76 | 1017.2 |
| 20260502182350 | 22 | 35 | 8.0 | 16.1 | 0.00 | 2.36 | 0.00 | 75 | 1017.2 |
| 20260502182251 | 22 | 52 | 3.2 | 16.1 | 0.00 | 2.36 | 0.00 | 75 | 1017.1 |
| 20260502182150 | 22 | 106 | 4.8 | 16.1 | 0.00 | 2.36 | 0.00 | 78 | 1017.2 |
| 20260502182049 | 22 | 54 | 6.4 | 16.1 | 0.00 | 2.36 | 0.00 | 78 | 1017.2 |
| 20260502181949 | 22 | 0 | 6.4 | 16.1 | 0.00 | 2.36 | 0.00 | 78 | 1017.2 |
| 20260502181850 | 22 | 79 | 8.0 | 16.1 | 0.00 | 2.39 | 0.00 | 76 | 1017.2 |
| 20260502181751 | 22 | 0 | 6.4 | 16.1 | 0.00 | 2.39 | 0.00 | 79 | 1017.3 |
| 20260502181649 | 22 | 68 | 4.8 | 16.1 | 0.00 | 2.39 | 0.00 | 89 | 1017.2 |
| 20260502181550 | 22 | 56 | 6.4 | 16.1 | 0.00 | 2.39 | 0.00 | 89 | 1017.3 |
| 20260502181450 | 22 | 83 | 6.4 | 16.1 | 0.00 | 2.39 | 0.00 | 79 | 1017.3 |
| 20260502181351 | 22 | 55 | 4.8 | 16.1 | 0.00 | 2.39 | 0.00 | 87 | 1017.3 |
| 20260502181250 | 22 | 69 | 6.4 | 16.1 | 0.00 | 2.41 | 0.00 | 87 | 1017.3 |
| 20260502181151 | 22 | 0 | 8.0 | 16.1 | 0.00 | 2.41 | 0.00 | 87 | 1017.3 |
| 20260502181050 | 22 | 42 | 8.0 | 16.1 | 0.00 | 2.41 | 0.00 | 87 | 1017.3 |
| 20260502180949 | 22 | 63 | 6.4 | 16.1 | 0.00 | 2.41 | 0.00 | 87 | 1017.4 |
| 20260502180850 | 22 | 111 | 8.0 | 16.1 | 0.00 | 2.41 | 0.00 | 87 | 1017.4 |
| 20260502180750 | 22 | 48 | 6.4 | 16.1 | 0.00 | 2.41 | 0.00 | 87 | 1017.4 |
| 20260502180650 | 21 | 59 | 4.8 | 16.1 | 0.00 | 2.41 | 0.00 | 83 | 1017.4 |
| 20260502180549 | 21 | 90 | 4.8 | 16.1 | 0.00 | 2.41 | 0.00 | 83 | 1017.4 |
| 20260502180450 | 21 | 357 | 6.4 | 16.1 | 0.00 | 2.41 | 0.00 | 88 | 1017.4 |
| 20260502180351 | 21 | 114 | 6.4 | 16.1 | 0.00 | 2.41 | 0.00 | 88 | 1017.4 |
| 20260502180251 | 21 | 58 | 4.8 | 16.1 | 0.00 | 2.44 | 0.00 | 88 | 1017.4 |
| 20260502180151 | 22 | 16 | 4.8 | 16.1 | 0.00 | 2.44 | 0.00 | 95 | 1017.5 |
| 20260502170503 | 21 | 0 | 6.4 | 17.7 | 0.00 | 2.54 | 0.00 | 100 | 1017.6 |
| 20260502170401 | 21 | 87 | 8.0 | 17.7 | 0.00 | 2.57 | 0.00 | 100 | 1017.7 |
| 20260502170304 | 21 | 39 | 9.7 | 19.3 | 0.00 | 2.57 | 0.00 | 100 | 1017.7 |
| 20260502170203 | 21 | 35 | 8.0 | 19.3 | 0.00 | 2.57 | 0.00 | 100 | 1017.8 |
| 20260502164303 | 21 | 85 | 4.8 | 19.3 | 0.00 | 2.77 | 0.00 | 100 | 1017.8 |
| 20260502164203 | 21 | 85 | 4.8 | 19.3 | 0.00 | 2.84 | 0.00 | 100 | 1017.8 |
| 20260502164103 | 21 | 299 | 6.4 | 19.3 | 0.00 | 2.84 | 0.00 | 100 | 1017.8 |
| 20260502164003 | 21 | 0 | 8.0 | 19.3 | 0.00 | 2.84 | 0.00 | 100 | 1017.8 |
| 20260502163902 | 21 | 72 | 4.8 | 19.3 | 0.00 | 2.84 | 0.00 | 100 | 1017.8 |
| 20260502163801 | 21 | 78 | 3.2 | 19.3 | 0.00 | 2.84 | 0.00 | 100 | 1017.9 |
| 20260502163703 | 21 | 323 | 8.0 | 19.3 | 0.00 | 2.84 | 0.00 | 100 | 1017.8 |
| 20260502163603 | 21 | 282 | 9.7 | 19.3 | 0.00 | 2.84 | 0.00 | 100 | 1017.8 |
| 20260502163503 | 21 | 337 | 4.8 | 17.7 | 0.00 | 2.84 | 0.00 | 100 | 1017.8 |
| 20260502163403 | 21 | 330 | 3.2 | 17.7 | 0.00 | 2.84 | 0.00 | 100 | 1017.8 |
| 20260502163303 | 21 | 75 | 4.8 | 17.7 | 0.00 | 2.87 | 0.00 | 100 | 1017.8 |
| 20260502163204 | 21 | 52 | 6.4 | 17.7 | 0.00 | 2.87 | 0.00 | 100 | 1017.8 |
| 20260502163103 | 21 | 69 | 6.4 | 17.7 | 0.00 | 2.87 | 0.00 | 100 | 1017.8 |
| 20260502163002 | 21 | 292 | 6.4 | 17.7 | 0.00 | 2.87 | 0.00 | 100 | 1017.8 |
| 20260502162902 | 21 | 124 | 6.4 | 17.7 | 0.00 | 2.90 | 0.00 | 100 | 1017.8 |
| 20260502162802 | 21 | 34 | 4.8 | 17.7 | 0.00 | 2.90 | 0.00 | 100 | 1017.7 |
| 20260502162702 | 21 | 85 | 3.2 | 16.1 | 0.00 | 2.90 | 0.00 | 100 | 1017.8 |
| 20260502162603 | 21 | 0 | 4.8 | 16.1 | 0.00 | 2.90 | 0.00 | 100 | 1017.8 |
| 20260502162502 | 21 | 82 | 4.8 | 16.1 | 0.00 | 2.90 | 0.00 | 100 | 1017.8 |
| 20260502162402 | 21 | 235 | 3.2 | 9.7 | 0.00 | 2.90 | 0.00 | 100 | 1017.7 |
| 20260502162304 | 20 | 0 | 4.8 | 9.7 | 0.00 | 2.92 | 0.00 | 100 | 1017.8 |
| 20260502162203 | 20 | 92 | 6.4 | 11.3 | 0.00 | 2.92 | 0.00 | 100 | 1017.8 |
| 20260502162102 | 20 | 97 | 4.8 | 11.3 | 0.00 | 2.92 | 0.00 | 100 | 1017.8 |
| 20260502162005 | 20 | 61 | 6.4 | 11.3 | 0.00 | 2.95 | 0.00 | 100 | 1017.8 |
| 20260502161902 | 20 | 51 | 6.4 | 11.3 | 0.00 | 2.95 | 0.00 | 100 | 1017.8 |
| 20260502161802 | 20 | 100 | 4.8 | 11.3 | 0.00 | 2.95 | 0.00 | 100 | 1017.8 |
| 20260502161703 | 20 | 85 | 4.8 | 11.3 | 0.00 | 2.97 | 0.00 | 100 | 1017.7 |
| 20260502161603 | 20 | 16 | 4.8 | 16.1 | 0.00 | 3.00 | 0.00 | 100 | 1017.8 |
| 20260502161505 | 20 | 17 | 3.2 | 16.1 | 0.00 | 3.00 | 0.00 | 100 | 1017.7 |
| 20260502161402 | 20 | 102 | 3.2 | 16.1 | 0.00 | 3.00 | 0.00 | 100 | 1017.6 |
| 20260502161301 | 20 | 78 | 3.2 | 16.1 | 0.00 | 3.02 | 0.00 | 100 | 1017.7 |
| 20260502161203 | 20 | 85 | 3.2 | 16.1 | 0.00 | 3.07 | 0.00 | 100 | 1017.7 |
| 20260502161103 | 20 | 68 | 3.2 | 16.1 | 0.00 | 3.07 | 0.00 | 100 | 1017.7 |
| 20260502161005 | 20 | 71 | 3.2 | 16.1 | 0.00 | 3.07 | 0.00 | 100 | 1017.7 |
| 20260502160902 | 20 | 76 | 4.8 | 16.1 | 0.00 | 3.07 | 0.00 | 100 | 1017.7 |
| 20260502160802 | 20 | 94 | 4.8 | 16.1 | 0.00 | 3.07 | 0.00 | 100 | 1017.7 |
| 20260502160702 | 20 | 61 | 6.4 | 16.1 | 0.00 | 3.07 | 0.00 | 100 | 1017.6 |
| 20260502160603 | 20 | 344 | 6.4 | 11.3 | 0.00 | 3.07 | 0.00 | 100 | 1017.6 |
| 20260502160504 | 20 | 52 | 4.8 | 11.3 | 0.00 | 3.07 | 0.00 | 100 | 1017.7 |
| 20260502160403 | 20 | 37 | 3.2 | 11.3 | 0.00 | 3.07 | 0.00 | 100 | 1017.7 |
| 20260502160304 | 20 | 41 | 4.8 | 11.3 | 0.00 | 3.07 | 0.00 | 100 | 1017.7 |
| 20260502160203 | 20 | 85 | 4.8 | 11.3 | 0.00 | 3.07 | 0.00 | 100 | 1017.7 |
| 20260502160103 | 20 | 79 | 3.2 | 11.3 | 0.00 | 3.07 | 0.00 | 100 | 1017.7 |
| 20260502152305 | 18 | 0 | 8.0 | 17.7 | 0.00 | 3.07 | 0.00 | 100 | 1017.7 |
| 20260502152201 | 18 | 344 | 8.0 | 17.7 | 0.00 | 3.10 | 0.00 | 100 | 1017.7 |
| 20260502152103 | 18 | 10 | 6.4 | 17.7 | 0.00 | 3.10 | 0.00 | 100 | 1017.7 |
| 20260502152004 | 18 | 314 | 8.0 | 17.7 | 0.00 | 3.10 | 0.00 | 100 | 1017.7 |
| 20260502151903 | 18 | 303 | 6.4 | 17.7 | 0.00 | 3.10 | 0.00 | 100 | 1017.7 |
| 20260502151803 | 18 | 0 | 4.8 | 11.3 | 0.00 | 3.10 | 0.00 | 100 | 1017.6 |
| 20260502151703 | 18 | 18 | 3.2 | 11.3 | 0.00 | 3.10 | 0.00 | 100 | 1017.7 |
| 20260502151552 | 18 | 355 | 3.2 | 11.3 | 0.00 | 3.10 | 0.00 | 100 | 1017.7 |
| 20260502151438 | 18 | 49 | 3.2 | 11.3 | 0.00 | 3.10 | 0.00 | 100 | 1017.6 |
| 20260502151340 | 18 | 92 | 6.4 | 11.3 | 0.00 | 3.10 | 0.00 | 100 | 1017.7 |
| 20260502151239 | 17 | 0 | 6.4 | 11.3 | 0.00 | 3.10 | 0.00 | 100 | 1017.7 |
| 20260502151139 | 17 | 79 | 4.8 | 11.3 | 0.00 | 3.10 | 0.00 | 100 | 1017.7 |
| 20260502151039 | 17 | 109 | 3.2 | 6.4 | 0.00 | 3.10 | 0.00 | 100 | 1017.6 |
| 20260502150939 | -17 | 0.0 | 0.0 | 0.00 | 3.10 | 0.00 | 1017.6 | ||
| 20260502150839 | -17 | 0.0 | 0.0 | 0.00 | 3.10 | 0.00 | 1017.7 | ||
| 20260502150740 | -17 | 0.0 | 0.0 | 0.00 | 3.10 | 0.00 | 1017.6 | ||
| 20260502150639 | -17 | 0.0 | 0.0 | 0.00 | 3.10 | 0.00 | 1017.7 | ||
| 20260502150537 | -17 | 0.0 | 0.0 | 0.00 | 3.10 | 0.00 | 1017.7 | ||
| 20260502150437 | -17 | 0.0 | 0.0 | 0.00 | 3.10 | 0.00 | 1017.6 | ||
| 20260502150338 | -17 | 0.0 | 0.0 | 0.00 | 3.10 | 0.00 | 1017.6 | ||
| 20260502150238 | -17 | 0.0 | 0.0 | 0.00 | 3.10 | 0.00 | 1017.6 | ||
| 20260502150134 | -17 | 0.0 | 0.0 | 0.00 | 3.10 | 0.00 | 1017.6 | ||
| 20260502130731 | 12 | 353 | 3.2 | 8.0 | 0.00 | 3.61 | 0.00 | 100 | 1016.5 |
| 20260502130631 | 12 | 353 | 3.2 | 8.0 | 0.00 | 3.61 | 0.00 | 100 | 1016.3 |
| 20260502130532 | 12 | 102 | 3.2 | 8.0 | 0.00 | 3.61 | 0.00 | 100 | 1016.4 |
| 20260502130430 | 12 | 288 | 3.2 | 8.0 | 0.00 | 3.61 | 0.00 | 100 | 1016.3 |
| 20260502130331 | 12 | 14 | 1.6 | 9.7 | 0.00 | 3.61 | 0.00 | 100 | 1016.3 |
| 20260502130232 | 12 | 331 | 3.2 | 9.7 | 0.00 | 3.61 | 0.00 | 100 | 1016.3 |
| 20260502130131 | 12 | 331 | 4.8 | 9.7 | 0.00 | 3.61 | 0.00 | 100 | 1016.3 |
| 20260502123730 | 11 | 330 | 1.6 | 9.7 | 0.00 | 3.63 | 0.00 | 100 | 1015.8 |
| 20260502123630 | 11 | 21 | 1.6 | 9.7 | 0.00 | 3.63 | 0.00 | 100 | 1015.8 |
| 20260502123530 | 11 | 17 | 3.2 | 9.7 | 0.00 | 3.63 | 0.00 | 100 | 1015.7 |
| 20260502123430 | 11 | 11 | 1.6 | 9.7 | 0.00 | 3.63 | 0.00 | 100 | 1015.7 |
| 20260502123330 | 11 | 0 | 3.2 | 9.7 | 0.00 | 3.63 | 0.00 | 100 | 1015.8 |
| 20260502123230 | 11 | 0 | 3.2 | 9.7 | 0.00 | 3.63 | 0.00 | 100 | 1015.7 |
| 20260502123131 | 11 | 63 | 3.2 | 9.7 | 0.00 | 3.63 | 0.00 | 100 | 1015.7 |
| 20260502123030 | 11 | 331 | 3.2 | 8.0 | 0.00 | 3.63 | 0.00 | 100 | 1015.8 |
| 20260502122929 | 11 | 313 | 3.2 | 8.0 | 0.00 | 3.63 | 0.00 | 100 | 1015.7 |
| 20260502122829 | 11 | 16 | 3.2 | 8.0 | 0.00 | 3.63 | 0.00 | 100 | 1015.8 |
| 20260502122729 | 11 | 0 | 1.6 | 4.8 | 0.00 | 3.63 | 0.00 | 100 | 1015.8 |
| 20260502122630 | 11 | 0 | 0.0 | 4.8 | 0.00 | 3.63 | 0.00 | 100 | 1015.8 |
| 20260502122530 | 11 | 11 | 0.0 | 4.8 | 0.00 | 3.63 | 0.00 | 100 | 1015.8 |
| 20260502122429 | 11 | 11 | 3.2 | 4.8 | 0.00 | 3.63 | 0.00 | 100 | 1015.8 |
| 20260502122331 | 11 | 0 | 3.2 | 4.8 | 0.00 | 3.63 | 0.00 | 100 | 1015.7 |
| 20260502122231 | 11 | 0 | 3.2 | 3.2 | 0.00 | 3.63 | 0.00 | 100 | 1015.8 |
| 20260502122131 | 11 | 351 | 1.6 | 3.2 | 0.00 | 3.63 | 0.00 | 100 | 1015.8 |
| 20260502122031 | 11 | 351 | 1.6 | 3.2 | 0.00 | 3.63 | 0.00 | 100 | 1015.8 |
| 20260502121930 | 11 | 351 | 1.6 | 3.2 | 0.00 | 3.63 | 0.00 | 100 | 1015.8 |
| 20260502121831 | 11 | 351 | 1.6 | 3.2 | 0.00 | 3.63 | 0.00 | 100 | 1015.8 |
| 20260502121731 | 11 | 6 | 1.6 | 1.6 | 0.00 | 3.63 | 0.00 | 100 | 1015.7 |
| 20260502121630 | 11 | 6 | 1.6 | 3.2 | 0.00 | 3.63 | 0.00 | 100 | 1015.8 |
| 20260502121528 | 11 | 6 | 1.6 | 3.2 | 0.00 | 3.63 | 0.00 | 100 | 1015.8 |
| 20260502121429 | 11 | 6 | 1.6 | 3.2 | 0.00 | 3.63 | 0.00 | 100 | 1015.7 |
| 20260502121328 | 11 | 6 | 1.6 | 3.2 | 0.00 | 3.63 | 0.00 | 100 | 1015.7 |
| 20260502121228 | 11 | 6 | 1.6 | 3.2 | 0.00 | 3.63 | 0.00 | 100 | 1015.6 |
| 20260502121128 | 11 | 6 | 1.6 | 3.2 | 0.00 | 3.63 | 0.00 | 100 | 1015.6 |
| 20260502121028 | 11 | 6 | 1.6 | 3.2 | 0.00 | 3.63 | 0.00 | 100 | 1015.7 |
| 20260502120928 | 11 | 6 | 1.6 | 4.8 | 0.00 | 3.63 | 0.00 | 100 | 1015.7 |
| 20260502120827 | 11 | 4 | 1.6 | 4.8 | 0.00 | 3.63 | 0.00 | 100 | 1015.7 |
| 20260502120728 | 11 | 7 | 1.6 | 4.8 | 0.00 | 3.63 | 0.00 | 100 | 1015.6 |
| 20260502120628 | 11 | 299 | 1.6 | 6.4 | 0.00 | 3.63 | 0.00 | 100 | 1015.6 |
| 20260502120527 | 11 | 353 | 1.6 | 6.4 | 0.00 | 3.63 | 0.00 | 100 | 1015.6 |
| 20260502120428 | 11 | 353 | 1.6 | 6.4 | 0.00 | 3.63 | 0.00 | 100 | 1015.5 |
| 20260502120328 | 11 | 353 | 1.6 | 6.4 | 0.00 | 3.63 | 0.00 | 100 | 1015.6 |
| 20260502120227 | 11 | 0 | 1.6 | 6.4 | 0.00 | 3.63 | 0.00 | 100 | 1015.6 |
| 20260502120128 | 11 | 355 | 3.2 | 6.4 | 0.00 | 3.63 | 0.00 | 100 | 1015.5 |
| 20260502115927 | 11 | 355 | 1.6 | 6.4 | 0.00 | 3.63 | 0.00 | 100 | 1015.6 |
| 20260502115827 | 11 | 355 | 3.2 | 6.4 | 0.00 | 3.63 | 0.00 | 100 | 1015.5 |
| 20260502115729 | 11 | 355 | 1.6 | 6.4 | 0.00 | 3.63 | 0.00 | 100 | 1015.5 |
| 20260502115628 | 11 | 21 | 0.0 | 6.4 | 0.00 | 3.63 | 0.00 | 100 | 1015.5 |
| 20260502115526 | 11 | 21 | 1.6 | 6.4 | 0.00 | 3.63 | 0.00 | 100 | 1015.4 |
| 20260502115428 | 11 | 21 | 1.6 | 6.4 | 0.00 | 3.63 | 0.00 | 100 | 1015.5 |
| 20260502115327 | 11 | 39 | 0.0 | 6.4 | 0.00 | 3.63 | 0.00 | 100 | 1015.5 |
| 20260502115227 | 11 | 347 | 0.0 | 6.4 | 0.00 | 3.63 | 0.00 | 100 | 1015.4 |
| 20260502115129 | 11 | 347 | 1.6 | 6.4 | 0.00 | 3.63 | 0.00 | 100 | 1015.4 |
| 20260502115026 | 11 | 347 | 1.6 | 6.4 | 0.00 | 3.63 | 0.00 | 100 | 1015.4 |
| 20260502114927 | 11 | 321 | 3.2 | 6.4 | 0.00 | 3.63 | 0.00 | 100 | 1015.5 |
| 20260502114827 | 11 | 32 | 3.2 | 6.4 | 0.00 | 3.63 | 0.00 | 100 | 1015.5 |
| 20260502114726 | 11 | 350 | 1.6 | 4.8 | 0.00 | 3.63 | 0.00 | 100 | 1015.4 |
| 20260502114626 | 11 | 350 | 0.0 | 4.8 | 0.00 | 3.63 | 0.00 | 100 | 1015.4 |
| 20260502114528 | 11 | 351 | 0.0 | 4.8 | 0.00 | 3.63 | 0.00 | 100 | 1015.5 |
| 20260502114427 | 11 | 351 | 1.6 | 4.8 | 0.00 | 3.63 | 0.00 | 100 | 1015.5 |
| 20260502114328 | 11 | 0 | 1.6 | 4.8 | 0.00 | 3.63 | 0.00 | 100 | 1015.4 |
| 20260502114228 | 11 | 0 | 1.6 | 4.8 | 0.00 | 3.63 | 0.00 | 100 | 1015.4 |
| 20260502114126 | 11 | 353 | 0.0 | 4.8 | 0.00 | 3.63 | 0.00 | 100 | 1015.4 |
| 20260502114028 | 11 | 353 | 1.6 | 4.8 | 0.00 | 3.63 | 0.00 | 100 | 1015.4 |
| 20260502113926 | 11 | 353 | 3.2 | 4.8 | 0.00 | 3.63 | 0.00 | 100 | 1015.3 |
| 20260502113827 | 11 | 0 | 3.2 | 4.8 | 0.00 | 3.63 | 0.00 | 100 | 1015.3 |
| 20260502113727 | 11 | 6 | 1.6 | 3.2 | 0.00 | 3.63 | 0.00 | 100 | 1015.4 |
| 20260502113626 | 11 | 8 | 1.6 | 3.2 | 0.00 | 3.63 | 0.00 | 100 | 1015.3 |
| 20260502113527 | 11 | 11 | 1.6 | 3.2 | 0.00 | 3.63 | 0.00 | 100 | 1015.3 |
| 20260502113427 | 11 | 11 | 1.6 | 3.2 | 0.00 | 3.63 | 0.00 | 100 | 1015.3 |
| 20260502113327 | 11 | 0 | 0.0 | 3.2 | 0.00 | 3.63 | 0.00 | 100 | 1015.3 |
| 20260502113227 | 11 | 0 | 1.6 | 3.2 | 0.00 | 3.63 | 0.00 | 100 | 1015.3 |
| 20260502113127 | 11 | 0 | 1.6 | 4.8 | 0.00 | 3.63 | 0.00 | 100 | 1015.2 |
| 20260502113026 | 11 | 0 | 1.6 | 4.8 | 0.00 | 3.63 | 0.00 | 100 | 1015.2 |
| 20260502112927 | 11 | 0 | 0.0 | 4.8 | 0.00 | 3.63 | 0.00 | 100 | 1015.2 |
| 20260502112827 | 11 | 0 | 0.0 | 6.4 | 0.00 | 3.63 | 0.00 | 100 | 1015.2 |
| 20260502112726 | 11 | 358 | 1.6 | 6.4 | 0.00 | 3.63 | 0.00 | 100 | 1015.1 |
| 20260502112627 | 11 | 0 | 1.6 | 6.4 | 0.00 | 3.63 | 0.00 | 100 | 1015.2 |
| 20260502112527 | 11 | 347 | 1.6 | 6.4 | 0.00 | 3.63 | 0.00 | 100 | 1015.1 |
| 20260502112427 | 11 | 350 | 1.6 | 6.4 | 0.00 | 3.63 | 0.00 | 100 | 1015.2 |
| 20260502112325 | 11 | 319 | 3.2 | 6.4 | 0.00 | 3.66 | 0.00 | 100 | 1015.1 |
| 20260502112226 | 11 | 0 | 1.6 | 6.4 | 0.00 | 3.66 | 0.00 | 100 | 1015.1 |
| 20260502112127 | 11 | 18 | 1.6 | 6.4 | 0.00 | 3.66 | 0.00 | 100 | 1015.1 |
| 20260502112027 | 11 | 10 | 3.2 | 6.4 | 0.00 | 3.66 | 0.00 | 100 | 1015.1 |
| 20260502111928 | 11 | 357 | 3.2 | 6.4 | 0.00 | 3.66 | 0.00 | 100 | 1015.2 |
| 20260502111827 | 11 | 355 | 3.2 | 6.4 | 0.00 | 3.66 | 0.00 | 100 | 1015.1 |
| 20260502111726 | 11 | 295 | 1.6 | 6.4 | 0.00 | 3.66 | 0.00 | 100 | 1015.1 |
| 20260502111627 | 11 | 35 | 1.6 | 6.4 | 0.00 | 3.66 | 0.00 | 100 | 1015.1 |
| 20260502111527 | 11 | 35 | 1.6 | 6.4 | 0.00 | 3.66 | 0.00 | 100 | 1015.1 |
| 20260502111427 | 11 | 39 | 1.6 | 6.4 | 0.00 | 3.66 | 0.00 | 100 | 1015.1 |
| 20260502111326 | 11 | 38 | 1.6 | 6.4 | 0.00 | 3.66 | 0.00 | 100 | 1015.1 |
| 20260502111227 | 11 | 293 | 1.6 | 6.4 | 0.00 | 3.66 | 0.00 | 100 | 1015.1 |
| 20260502111126 | 11 | 28 | 4.8 | 6.4 | 0.00 | 3.66 | 0.00 | 100 | 1015.1 |
| 20260502111026 | 11 | 28 | 3.2 | 6.4 | 0.00 | 3.66 | 0.00 | 100 | 1015.0 |
| 20260502110925 | 11 | 1 | 3.2 | 6.4 | 0.00 | 3.66 | 0.00 | 100 | 1015.1 |
| 20260502110827 | 11 | 69 | 1.6 | 4.8 | 0.00 | 3.66 | 0.00 | 100 | 1015.1 |
| 20260502110726 | 11 | 0 | 3.2 | 4.8 | 0.00 | 3.66 | 0.00 | 100 | 1015.0 |
| 20260502110627 | 11 | 0 | 3.2 | 4.8 | 0.00 | 3.66 | 0.00 | 100 | 1015.0 |
| 20260502110526 | 11 | 310 | 0.0 | 4.8 | 0.00 | 3.66 | 0.00 | 100 | 1015.0 |
| 20260502110427 | 11 | 313 | 1.6 | 4.8 | 0.00 | 3.66 | 0.00 | 100 | 1014.9 |
| 20260502110326 | 11 | 314 | 1.6 | 6.4 | 0.00 | 3.66 | 0.00 | 100 | 1014.8 |
| 20260502110227 | 11 | 331 | 1.6 | 9.7 | 0.00 | 3.66 | 0.00 | 100 | 1014.9 |
| 20260502110125 | 11 | 357 | 1.6 | 9.7 | 0.00 | 3.66 | 0.00 | 100 | 1014.9 |
| 20260502110027 | 11 | 32 | 1.6 | 9.7 | 0.00 | 3.68 | 0.00 | 100 | 1014.8 |
| 20260502105927 | 11 | 204 | 1.6 | 9.7 | 0.00 | 3.68 | 0.00 | 100 | 1014.8 |
| 20260502105826 | 11 | 204 | 1.6 | 9.7 | 0.00 | 3.68 | 0.00 | 100 | 1014.8 |
| 20260502105725 | 11 | 245 | 1.6 | 9.7 | 0.00 | 3.68 | 0.00 | 100 | 1014.8 |
| 20260502105627 | 11 | 355 | 1.6 | 9.7 | 0.00 | 3.68 | 0.00 | 100 | 1014.8 |
| 20260502105527 | 11 | 62 | 3.2 | 9.7 | 0.00 | 3.71 | 0.00 | 100 | 1014.8 |
| 20260502105426 | 11 | 18 | 4.8 | 9.7 | 0.00 | 3.71 | 0.00 | 100 | 1014.8 |
| 20260502105327 | 11 | 1 | 4.8 | 9.7 | 0.00 | 3.71 | 0.00 | 100 | 1014.7 |
| 20260502105225 | 11 | 0 | 3.2 | 9.7 | 0.00 | 3.73 | 0.00 | 100 | 1014.8 |
| 20260502105125 | 11 | 7 | 1.6 | 8.0 | 0.00 | 3.73 | 0.00 | 100 | 1014.7 |
| 20260502105026 | 11 | 6 | 1.6 | 8.0 | 0.00 | 3.76 | 0.00 | 100 | 1014.7 |
| 20260502104926 | 11 | 18 | 0.0 | 8.0 | 0.00 | 3.78 | 0.00 | 100 | 1014.7 |
| 20260502104827 | 11 | 18 | 0.0 | 8.0 | 0.00 | 3.78 | 0.00 | 100 | 1014.7 |
| 20260502104726 | 11 | 353 | 1.6 | 8.0 | 0.00 | 3.78 | 0.00 | 100 | 1014.7 |
| 20260502104626 | 11 | 0 | 3.2 | 8.0 | 0.00 | 3.78 | 0.00 | 100 | 1014.6 |
| 20260502104526 | 11 | 303 | 3.2 | 8.0 | 0.00 | 3.78 | 0.00 | 100 | 1014.7 |
| 20260502104426 | 11 | 345 | 3.2 | 8.0 | 0.00 | 3.81 | 0.00 | 100 | 1014.7 |
| 20260502104326 | 11 | 288 | 3.2 | 8.0 | 0.00 | 3.81 | 0.00 | 100 | 1014.7 |
| 20260502104227 | 11 | 35 | 3.2 | 8.0 | 0.00 | 3.81 | 0.00 | 100 | 1014.6 |
| 20260502104127 | 11 | 0 | 3.2 | 8.0 | 0.00 | 3.86 | 0.00 | 100 | 1014.7 |
| 20260502104026 | 11 | 8 | 3.2 | 8.0 | 0.00 | 3.86 | 0.00 | 100 | 1014.7 |
| 20260502103925 | 11 | 13 | 3.2 | 8.0 | 0.00 | 3.86 | 0.00 | 100 | 1014.6 |
| 20260502103826 | 11 | 0 | 4.8 | 8.0 | 0.00 | 3.86 | 0.00 | 100 | 1014.7 |
| 20260502103725 | 11 | 0 | 4.8 | 8.0 | 0.00 | 3.86 | 0.00 | 100 | 1014.6 |
| 20260502103626 | 11 | 314 | 3.2 | 8.0 | 0.00 | 3.86 | 0.00 | 100 | 1014.7 |
| 20260502103525 | 11 | 330 | 1.6 | 8.0 | 0.00 | 3.86 | 0.00 | 100 | 1014.7 |
| 20260502103426 | 11 | 330 | 3.2 | 8.0 | 0.00 | 3.86 | 0.00 | 100 | 1014.6 |
| 20260502103319 | 11 | 340 | 1.6 | 8.0 | 0.00 | 3.86 | 0.00 | 100 | 1014.6 |
| 20260502103210 | 11 | 248 | 1.6 | 8.0 | 0.00 | 3.89 | 0.00 | 100 | 1014.6 |
| 20260502103105 | 11 | 3 | 3.2 | 8.0 | 0.00 | 3.89 | 0.00 | 100 | 1014.5 |
| 20260502103003 | 11 | 14 | 3.2 | 8.0 | 0.00 | 3.91 | 0.00 | 100 | 1014.6 |
| 20260502102902 | 11 | 0 | 1.6 | 8.0 | 0.00 | 3.91 | 0.00 | 100 | 1014.6 |
| 20260502102803 | 11 | 336 | 3.2 | 8.0 | 0.00 | 3.91 | 0.00 | 100 | 1014.5 |
| 20260502102704 | 11 | 310 | 3.2 | 8.0 | 0.00 | 3.94 | 0.00 | 100 | 1014.5 |
| 20260502102604 | 11 | 344 | 1.6 | 8.0 | 0.00 | 3.96 | 0.00 | 100 | 1014.4 |
| 20260502102501 | 11 | 336 | 1.6 | 8.0 | 0.00 | 3.96 | 0.00 | 100 | 1014.5 |
| 20260502102403 | 11 | 343 | 1.6 | 8.0 | 0.00 | 3.96 | 0.00 | 100 | 1014.4 |
| 20260502102305 | 11 | 343 | 3.2 | 8.0 | 0.00 | 3.99 | 0.00 | 100 | 1014.4 |
| 20260502102203 | 11 | 350 | 3.2 | 8.0 | 0.00 | 3.99 | 0.00 | 100 | 1014.4 |
| 20260502102103 | 11 | 358 | 1.6 | 6.4 | 0.00 | 4.01 | 0.00 | 100 | 1014.3 |
| 20260502102002 | 11 | 358 | 1.6 | 6.4 | 0.00 | 4.01 | 0.00 | 100 | 1014.4 |
| 20260502101902 | 11 | 0 | 1.6 | 6.4 | 0.00 | 4.06 | 0.00 | 100 | 1014.5 |
| 20260502101802 | 11 | 0 | 3.2 | 6.4 | 0.00 | 4.06 | 0.00 | 100 | 1014.4 |
| 20260502101703 | 11 | 348 | 3.2 | 4.8 | 0.00 | 4.06 | 0.00 | 100 | 1014.4 |
| 20260502101604 | 11 | 0 | 1.6 | 4.8 | 0.00 | 4.09 | 0.00 | 100 | 1014.4 |
| 20260502101504 | 11 | 350 | 0.0 | 6.4 | 0.00 | 4.09 | 0.00 | 100 | 1014.4 |
| 20260502101403 | 11 | 354 | 0.0 | 6.4 | 0.00 | 4.09 | 0.00 | 100 | 1014.3 |
| 20260502101302 | 11 | 354 | 0.0 | 6.4 | 0.00 | 4.11 | 0.00 | 100 | 1014.3 |
| 20260502101203 | 11 | 354 | 1.6 | 6.4 | 0.00 | 4.14 | 0.00 | 100 | 1014.4 |
| 20260502101103 | 11 | 354 | 1.6 | 6.4 | 0.00 | 4.14 | 0.00 | 100 | 1014.3 |
| 20260502101002 | 11 | 0 | 1.6 | 6.4 | 0.00 | 4.17 | 0.00 | 100 | 1014.2 |
| 20260502100903 | 11 | 0 | 3.2 | 6.4 | 0.00 | 4.17 | 0.00 | 100 | 1014.2 |
| 20260502100803 | 11 | 0 | 1.6 | 6.4 | 0.00 | 4.17 | 0.00 | 100 | 1014.2 |
| 20260502100703 | 11 | 334 | 1.6 | 6.4 | 0.00 | 4.19 | 0.00 | 100 | 1014.2 |
| 20260502100603 | 11 | 334 | 3.2 | 6.4 | 0.00 | 4.19 | 0.00 | 100 | 1014.2 |
| 20260502100502 | 11 | 0 | 1.6 | 6.4 | 0.00 | 4.22 | 0.00 | 100 | 1014.2 |
| 20260502100403 | 11 | 0 | 1.6 | 6.4 | 0.00 | 4.22 | 0.00 | 100 | 1014.2 |
| 20260502100302 | 11 | 0 | 1.6 | 6.4 | 0.00 | 4.24 | 0.00 | 100 | 1014.1 |
| 20260502100204 | 11 | 0 | 1.6 | 6.4 | 0.00 | 4.24 | 0.00 | 100 | 1014.1 |
| 20260502091503 | 11 | 14 | 1.6 | 4.8 | 0.00 | 5.13 | 0.00 | 100 | 1013.3 |
| 20260502091404 | 11 | 14 | 1.6 | 4.8 | 0.00 | 5.21 | 0.00 | 100 | 1013.2 |
| 20260502091302 | 11 | 48 | 1.6 | 4.8 | 0.00 | 5.23 | 0.00 | 100 | 1013.1 |
| 20260502091203 | 11 | 44 | 1.6 | 4.8 | 0.00 | 5.28 | 0.00 | 100 | 1013.1 |
| 20260502091102 | 11 | 44 | 1.6 | 4.8 | 0.00 | 5.31 | 0.00 | 100 | 1013.0 |
| 20260502091003 | 11 | 39 | 1.6 | 4.8 | 0.00 | 5.36 | 0.00 | 100 | 1013.1 |
| 20260502090903 | 11 | 38 | 1.6 | 4.8 | 0.00 | 5.38 | 0.00 | 100 | 1013.1 |
| 20260502090803 | 11 | 37 | 1.6 | 4.8 | 0.00 | 5.49 | 0.00 | 100 | 1013.1 |
| 20260502090704 | 12 | 21 | 0.0 | 4.8 | 0.00 | 5.56 | 0.00 | 100 | 1013.1 |
| 20260502090602 | 12 | 23 | 1.6 | 4.8 | 0.00 | 5.56 | 0.00 | 100 | 1013.0 |
| 20260502090503 | 12 | 23 | 1.6 | 4.8 | 0.00 | 5.56 | 0.00 | 100 | 1013.0 |
| 20260502090403 | 12 | 24 | 1.6 | 4.8 | 0.00 | 5.56 | 0.00 | 100 | 1013.1 |
| 20260502090302 | 12 | 24 | 3.2 | 4.8 | 0.00 | 5.56 | 0.00 | 100 | 1013.1 |
| 20260502090202 | 12 | 24 | 1.6 | 4.8 | 0.00 | 5.56 | 0.00 | 100 | 1013.1 |
| 20260502071503 | 12 | 20 | 3.2 | 8.0 | 0.00 | 8.84 | 0.00 | 100 | 1013.3 |
| 20260502071403 | 12 | 92 | 3.2 | 8.0 | 0.00 | 8.84 | 0.00 | 100 | 1013.2 |
| 20260502071304 | 12 | 41 | 3.2 | 8.0 | 0.00 | 8.84 | 0.00 | 100 | 1013.2 |
| 20260502071203 | 12 | 66 | 3.2 | 8.0 | 0.00 | 8.84 | 0.00 | 100 | 1013.1 |
| 20260502071103 | 12 | 89 | 3.2 | 8.0 | 0.00 | 8.84 | 0.00 | 100 | 1013.2 |
| 20260502071005 | 12 | 32 | 3.2 | 8.0 | 0.00 | 8.84 | 0.00 | 100 | 1013.2 |
| 20260502070902 | 12 | 61 | 3.2 | 9.7 | 0.00 | 8.84 | 0.00 | 100 | 1013.2 |
| 20260502070802 | 12 | 31 | 4.8 | 9.7 | 0.00 | 8.84 | 0.00 | 100 | 1013.2 |
| 20260502070703 | 12 | 102 | 3.2 | 9.7 | 0.00 | 8.84 | 0.00 | 100 | 1013.1 |
| 20260502070603 | 12 | 75 | 3.2 | 9.7 | 0.00 | 8.84 | 0.00 | 100 | 1013.1 |
| 20260502070504 | 12 | 35 | 3.2 | 9.7 | 0.00 | 8.84 | 0.00 | 100 | 1013.1 |
| 20260502070402 | 12 | 83 | 3.2 | 9.7 | 0.00 | 8.84 | 0.00 | 100 | 1013.1 |
| 20260502070303 | 12 | 3 | 3.2 | 14.5 | 0.00 | 8.84 | 0.00 | 100 | 1013.0 |
| 20260502070203 | 12 | 37 | 6.4 | 14.5 | 0.00 | 8.84 | 0.00 | 100 | 1013.0 |
| 20260502070104 | 12 | 25 | 4.8 | 14.5 | 0.00 | 8.84 | 0.00 | 100 | 1013.1 |
| 20260502070002 | 12 | 25 | 3.2 | 14.5 | 0.00 | 8.84 | 0.00 | 100 | 1013.1 |
| 20260502065903 | 12 | 63 | 3.2 | 14.5 | 0.00 | 8.84 | 0.00 | 100 | 1013.1 |
| 20260502065803 | 12 | 307 | 3.2 | 14.5 | 0.00 | 8.84 | 0.00 | 100 | 1013.0 |
| 20260502065703 | 12 | 55 | 3.2 | 14.5 | 0.00 | 8.84 | 0.00 | 100 | 1013.1 |
| 20260502065602 | 12 | 59 | 3.2 | 14.5 | 0.00 | 8.84 | 0.00 | 100 | 1013.0 |
| 20260502065503 | 12 | 72 | 4.8 | 14.5 | 0.00 | 8.84 | 0.00 | 100 | 1013.0 |
| 20260502065403 | 12 | 38 | 4.8 | 14.5 | 0.00 | 8.84 | 0.00 | 100 | 1012.9 |
| 20260502065305 | 12 | 76 | 6.4 | 14.5 | 0.00 | 8.84 | 0.00 | 100 | 1012.9 |
| 20260502065201 | 12 | 103 | 6.4 | 14.5 | 0.00 | 8.84 | 0.00 | 100 | 1012.9 |
| 20260502065104 | 12 | 32 | 4.8 | 14.5 | 0.00 | 8.84 | 0.00 | 100 | 1012.8 |
| 20260502065003 | 12 | 47 | 4.8 | 14.5 | 0.00 | 8.84 | 0.00 | 100 | 1012.8 |
| 20260502064902 | 12 | 90 | 6.4 | 14.5 | 0.00 | 8.84 | 0.00 | 100 | 1012.9 |
| 20260502064804 | 12 | 85 | 6.4 | 14.5 | 0.00 | 8.84 | 0.00 | 100 | 1012.8 |
| 20260502064702 | 12 | 25 | 6.4 | 11.3 | 0.00 | 8.84 | 0.00 | 100 | 1012.8 |
| 20260502064603 | 12 | 72 | 4.8 | 8.0 | 0.00 | 8.84 | 0.00 | 100 | 1012.9 |
| 20260502064454 | 12 | 83 | 4.8 | 11.3 | 0.00 | 8.84 | 0.00 | 100 | 1012.9 |
| 20260502064331 | 12 | 90 | 3.2 | 11.3 | 0.00 | 8.84 | 0.00 | 100 | 1012.9 |
| 20260502064232 | 12 | 71 | 3.2 | 11.3 | 0.00 | 8.84 | 0.00 | 100 | 1012.9 |
| 20260502064133 | 12 | 47 | 3.2 | 11.3 | 0.00 | 8.84 | 0.00 | 100 | 1012.9 |
| 20260502064031 | 12 | 11 | 3.2 | 11.3 | 0.00 | 8.84 | 0.00 | 100 | 1013.0 |
| 20260502063932 | 12 | 87 | 4.8 | 11.3 | 0.00 | 8.84 | 0.00 | 100 | 1013.0 |
| 20260502063832 | 12 | 355 | 6.4 | 11.3 | 0.00 | 8.86 | 0.00 | 100 | 1012.9 |
| 20260502063732 | 12 | 62 | 6.4 | 11.3 | 0.00 | 8.86 | 0.00 | 100 | 1013.0 |
| 20260502063633 | 12 | 83 | 4.8 | 11.3 | 0.00 | 8.86 | 0.00 | 100 | 1013.0 |
| 20260502063532 | 12 | 0 | 3.2 | 11.3 | 0.00 | 8.86 | 0.00 | 100 | 1013.0 |
| 20260502063431 | 12 | 66 | 3.2 | 11.3 | 0.00 | 8.86 | 0.00 | 100 | 1013.0 |
| 20260502063330 | 12 | 111 | 3.2 | 11.3 | 0.00 | 8.86 | 0.00 | 100 | 1013.0 |
| 20260502063222 | 12 | 39 | 4.8 | 11.3 | 0.00 | 8.86 | 0.00 | 100 | 1012.9 |
| 20260502063119 | 12 | 0 | 4.8 | 11.3 | 0.00 | 8.86 | 0.00 | 100 | 1012.9 |
| 20260502063019 | 12 | 16 | 6.4 | 8.0 | 0.00 | 8.86 | 0.00 | 100 | 1012.9 |
| 20260502062919 | -17 | 25 | 8.0 | 8.0 | 0.00 | 8.86 | 0.00 | 1012.9 | |
| 20260502062819 | 12 | 49 | 3.2 | 4.8 | 0.00 | 8.86 | 0.00 | 100 | 1012.9 |
| 20260502062718 | 12 | 49 | 3.2 | 4.8 | 0.00 | 8.86 | 0.00 | 100 | 1012.8 |
| 20260502062618 | 12 | 49 | 3.2 | 4.8 | 0.00 | 8.86 | 0.00 | 100 | 1012.8 |
| 20260502062517 | 12 | 49 | 3.2 | 8.0 | 0.00 | 8.86 | 0.00 | 100 | 1012.8 |
| 20260502062417 | 12 | 49 | 3.2 | 9.7 | 0.00 | 8.89 | 0.00 | 100 | 1012.9 |
| 20260502062317 | 12 | 49 | 3.2 | 9.7 | 0.00 | 8.89 | 0.00 | 100 | 1012.8 |
| 20260502062216 | 12 | 49 | 3.2 | 9.7 | 0.00 | 8.89 | 0.00 | 100 | 1012.8 |
| 20260502062116 | 12 | 49 | 3.2 | 9.7 | 0.00 | 8.89 | 0.00 | 100 | 1012.8 |
| 20260502062005 | 12 | 49 | 3.2 | 11.3 | 0.00 | 8.92 | 0.00 | 100 | 1012.8 |
| 20260502061902 | 12 | 175 | 3.2 | 14.5 | 0.00 | 8.92 | 0.00 | 100 | 1012.7 |
| 20260502061803 | 12 | 37 | 3.2 | 14.5 | 0.00 | 8.94 | 0.00 | 100 | 1012.7 |
| 20260502061702 | 12 | 49 | 3.2 | 14.5 | 0.00 | 8.94 | 0.00 | 100 | 1012.8 |
| 20260502061602 | 12 | 72 | 4.8 | 14.5 | 0.00 | 8.94 | 0.00 | 100 | 1012.7 |
| 20260502061503 | 12 | 41 | 4.8 | 14.5 | 0.00 | 8.94 | 0.00 | 100 | 1012.8 |
| 20260502061402 | 12 | 16 | 3.2 | 14.5 | 0.00 | 8.94 | 0.00 | 100 | 1012.8 |
| 20260502061303 | 12 | 79 | 4.8 | 20.9 | 0.00 | 8.97 | 0.00 | 100 | 1012.7 |
| 20260502061202 | 12 | 0 | 6.4 | 20.9 | 0.00 | 8.97 | 0.00 | 100 | 1012.8 |
| 20260502061103 | 12 | 65 | 6.4 | 20.9 | 0.00 | 8.99 | 0.00 | 100 | 1012.7 |
| 20260502061003 | 12 | 330 | 6.4 | 20.9 | 0.00 | 8.99 | 0.00 | 100 | 1012.7 |
| 20260502060903 | 12 | 11 | 4.8 | 20.9 | 0.00 | 8.99 | 0.00 | 100 | 1012.7 |
| 20260502060802 | 13 | 47 | 4.8 | 20.9 | 0.00 | 8.99 | 0.00 | 100 | 1012.8 |
| 20260502060703 | 13 | 52 | 3.2 | 20.9 | 0.00 | 8.99 | 0.00 | 100 | 1012.8 |
| 20260502060604 | 13 | 319 | 3.2 | 20.9 | 0.00 | 9.02 | 0.00 | 100 | 1012.8 |
| 20260502060502 | 13 | 44 | 6.4 | 20.9 | 0.00 | 9.02 | 0.00 | 100 | 1012.7 |
| 20260502060404 | 13 | 0 | 6.4 | 20.9 | 0.00 | 9.02 | 0.00 | 100 | 1012.8 |
| 20260502060304 | 13 | 44 | 3.2 | 17.7 | 0.00 | 9.02 | 0.00 | 100 | 1012.7 |
| 20260502060203 | 13 | 55 | 4.8 | 17.7 | 0.00 | 9.02 | 0.00 | 100 | 1012.7 |
| 20260502060005 | 13 | 80 | 6.4 | 14.5 | 0.00 | 9.02 | 0.00 | 100 | 1012.7 |
| 20260502055904 | 13 | 85 | 6.4 | 14.5 | 0.00 | 9.02 | 0.00 | 100 | 1012.7 |
| 20260502055803 | 13 | 31 | 3.2 | 11.3 | 0.00 | 9.02 | 0.00 | 100 | 1012.7 |
| 20260502055703 | 12 | 96 | 6.4 | 14.5 | 0.00 | 9.02 | 0.00 | 100 | 1012.7 |
| 20260502055603 | 12 | 82 | 4.8 | 14.5 | 0.00 | 9.02 | 0.00 | 100 | 1012.7 |
| 20260502055504 | 12 | 56 | 4.8 | 14.5 | 0.00 | 9.02 | 0.00 | 100 | 1012.8 |
| 20260502055404 | 12 | 30 | 3.2 | 14.5 | 0.00 | 9.02 | 0.00 | 100 | 1012.8 |
| 20260502055305 | 12 | 73 | 4.8 | 14.5 | 0.00 | 9.02 | 0.00 | 100 | 1012.9 |
| 20260502055202 | 12 | 79 | 4.8 | 14.5 | 0.00 | 9.02 | 0.00 | 100 | 1012.9 |
| 20260502055103 | 13 | 28 | 4.8 | 14.5 | 0.00 | 9.02 | 0.00 | 100 | 1012.9 |
| 20260502055003 | 12 | 114 | 4.8 | 14.5 | 0.00 | 9.02 | 0.00 | 100 | 1012.9 |
| 20260502054903 | 13 | 63 | 6.4 | 14.5 | 0.00 | 9.02 | 0.00 | 100 | 1013.0 |
| 20260502054803 | 13 | 54 | 6.4 | 14.5 | 0.00 | 9.02 | 0.00 | 100 | 1013.0 |
| 20260502054702 | 13 | 4 | 4.8 | 9.7 | 0.00 | 9.02 | 0.00 | 100 | 1013.0 |
| 20260502054604 | 13 | 0 | 1.6 | 9.7 | 0.00 | 9.02 | 0.00 | 100 | 1013.0 |
| 20260502054503 | 13 | 344 | 3.2 | 9.7 | 0.00 | 9.02 | 0.00 | 100 | 1013.0 |
| 20260502054333 | 13 | 344 | 3.2 | 9.7 | 0.00 | 9.02 | 0.00 | 100 | 1013.0 |
| 20260502054230 | 13 | 49 | 3.2 | 9.7 | 0.00 | 9.04 | 0.00 | 100 | 1013.0 |
| 20260502054131 | 13 | 38 | 4.8 | 9.7 | 0.00 | 9.04 | 0.00 | 100 | 1013.0 |
| 20260502054031 | 13 | 39 | 6.4 | 9.7 | 0.00 | 9.04 | 0.00 | 100 | 1012.9 |
| 20260502053931 | 13 | 109 | 4.8 | 14.5 | 0.00 | 9.04 | 0.00 | 100 | 1013.0 |
| 20260502053830 | 13 | 93 | 4.8 | 14.5 | 0.00 | 9.04 | 0.00 | 100 | 1012.9 |
| 20260502053717 | 13 | 59 | 4.8 | 14.5 | 0.00 | 9.04 | 0.00 | 100 | 1013.0 |
| 20260502053616 | 13 | 245 | 4.8 | 14.5 | 0.00 | 9.07 | 0.00 | 100 | 1013.0 |
| 20260502053515 | 13 | 30 | 6.4 | 16.1 | 0.00 | 9.09 | 0.00 | 100 | 1013.0 |
| 20260502053416 | 12 | 1 | 4.8 | 16.1 | 0.00 | 9.09 | 0.00 | 100 | 1013.1 |
| 20260502053315 | 12 | 82 | 4.8 | 16.1 | 0.00 | 9.12 | 0.00 | 100 | 1013.1 |
| 20260502053215 | 12 | 337 | 4.8 | 16.1 | 0.00 | 9.14 | 0.00 | 100 | 1013.1 |
| 20260502053114 | 12 | 96 | 4.8 | 16.1 | 0.00 | 9.14 | 0.00 | 100 | 1013.0 |
| 20260502053016 | 13 | 324 | 6.4 | 16.1 | 0.00 | 9.14 | 0.00 | 100 | 1013.1 |
| 20260502052915 | 13 | 92 | 6.4 | 16.1 | 0.00 | 9.17 | 0.00 | 100 | 1013.0 |
| 20260502052815 | 13 | 303 | 6.4 | 16.1 | 0.00 | 9.19 | 0.00 | 100 | 1013.2 |
| 20260502052714 | 13 | 0 | 6.4 | 16.1 | 0.00 | 9.19 | 0.00 | 100 | 1013.1 |
| 20260502052615 | 13 | 21 | 6.4 | 16.1 | 0.00 | 9.22 | 0.00 | 100 | 1013.1 |
| 20260502052514 | 13 | 107 | 4.8 | 16.1 | 0.00 | 9.22 | 0.00 | 100 | 1013.3 |
| 20260502052415 | 13 | 76 | 3.2 | 17.7 | 0.00 | 9.25 | 0.00 | 100 | 1013.2 |
| 20260502052316 | 13 | 3 | 4.8 | 17.7 | 0.00 | 9.27 | 0.00 | 100 | 1013.2 |
| 20260502052214 | 13 | 103 | 3.2 | 17.7 | 0.00 | 9.27 | 0.00 | 100 | 1013.1 |
| 20260502052115 | 13 | 11 | 3.2 | 17.7 | 0.00 | 9.27 | 0.00 | 100 | 1013.1 |
| 20260502052015 | 13 | 69 | 6.4 | 17.7 | 0.00 | 9.30 | 0.00 | 100 | 1013.1 |
| 20260502051915 | 13 | 49 | 8.0 | 17.7 | 0.00 | 9.30 | 0.00 | 100 | 1013.1 |
| 20260502051815 | 13 | 69 | 6.4 | 17.7 | 0.00 | 9.32 | 0.00 | 100 | 1013.1 |
| 20260502051714 | 13 | 75 | 4.8 | 17.7 | 0.00 | 9.35 | 0.00 | 100 | 1013.0 |
| 20260502051616 | 13 | 55 | 6.4 | 17.7 | 0.00 | 9.35 | 0.00 | 100 | 1013.1 |
| 20260502051513 | 13 | 92 | 4.8 | 17.7 | 0.00 | 9.35 | 0.00 | 100 | 1013.1 |
| 20260502051415 | 13 | 354 | 4.8 | 14.5 | 0.00 | 9.35 | 0.00 | 100 | 1013.1 |
| 20260502051315 | 13 | 102 | 4.8 | 14.5 | 0.00 | 9.35 | 0.00 | 100 | 1013.0 |
| 20260502051214 | 13 | 25 | 6.4 | 14.5 | 0.00 | 9.35 | 0.00 | 100 | 1013.1 |
| 20260502051114 | 13 | 4 | 6.4 | 14.5 | 0.00 | 9.35 | 0.00 | 100 | 1013.2 |
| 20260502051016 | 13 | 123 | 4.8 | 16.1 | 0.00 | 9.35 | 0.00 | 100 | 1013.1 |
| 20260502050916 | 13 | 293 | 4.8 | 16.1 | 0.00 | 9.35 | 0.00 | 100 | 1013.2 |
| 20260502050815 | 13 | 39 | 6.4 | 17.7 | 0.00 | 9.35 | 0.00 | 100 | 1013.2 |
| 20260502050714 | 13 | 11 | 4.8 | 19.3 | 0.00 | 9.35 | 0.00 | 100 | 1013.2 |
| 20260502050615 | 13 | 66 | 6.4 | 19.3 | 0.00 | 9.35 | 0.00 | 100 | 1013.1 |
| 20260502050516 | 13 | 355 | 6.4 | 19.3 | 0.00 | 9.35 | 0.00 | 100 | 1013.2 |
| 20260502050415 | 13 | 68 | 3.2 | 19.3 | 0.00 | 9.35 | 0.00 | 100 | 1013.3 |
| 20260502050314 | 13 | 49 | 3.2 | 19.3 | 0.00 | 9.35 | 0.00 | 100 | 1013.3 |
| 20260502050215 | 13 | 45 | 4.8 | 19.3 | 0.00 | 9.35 | 0.00 | 100 | 1013.3 |
| 20260502050114 | 13 | 1 | 6.4 | 19.3 | 0.00 | 9.35 | 0.00 | 100 | 1013.2 |
| 20260502050016 | 13 | 21 | 6.4 | 19.3 | 0.00 | 9.35 | 0.00 | 100 | 1013.2 |
| 20260502045915 | 13 | 61 | 4.8 | 19.3 | 0.00 | 9.35 | 9.35 | 100 | 1013.2 |
| 20260502045816 | 13 | 13 | 9.7 | 19.3 | 0.00 | 9.35 | 9.35 | 100 | 1013.1 |
| 20260502045715 | 13 | 27 | 6.4 | 19.3 | 0.00 | 9.35 | 9.35 | 100 | 1013.0 |
| 20260502045616 | 13 | 305 | 4.8 | 20.9 | 0.00 | 9.35 | 9.35 | 100 | 1013.1 |
| 20260502045515 | 13 | 56 | 4.8 | 20.9 | 0.00 | 9.35 | 9.35 | 100 | 1013.0 |
| 20260502045414 | 13 | 93 | 6.4 | 20.9 | 0.00 | 9.35 | 9.35 | 100 | 1013.0 |
| 20260502045314 | 13 | 111 | 6.4 | 20.9 | 0.00 | 9.35 | 9.35 | 100 | 1013.0 |
| 20260502045214 | 13 | 56 | 4.8 | 20.9 | 0.00 | 9.35 | 9.35 | 100 | 1013.0 |
| 20260502045114 | 13 | 89 | 4.8 | 20.9 | 0.00 | 9.35 | 9.35 | 100 | 1013.0 |
| 20260502045014 | 13 | 54 | 4.8 | 20.9 | 0.00 | 9.35 | 9.35 | 100 | 1013.0 |
| 20260502044914 | 13 | 113 | 6.4 | 20.9 | 0.00 | 9.35 | 9.35 | 100 | 1013.0 |
| 20260502044813 | 13 | 65 | 8.0 | 20.9 | 0.00 | 9.35 | 9.35 | 100 | 1013.0 |
| 20260502044713 | 13 | 65 | 8.0 | 20.9 | 0.00 | 9.35 | 9.35 | 100 | 1013.0 |
| 20260502044614 | 13 | 62 | 4.8 | 19.3 | 0.00 | 9.35 | 9.35 | 100 | 1013.0 |
| 20260502044515 | 13 | 41 | 4.8 | 19.3 | 0.00 | 9.35 | 9.35 | 100 | 1013.0 |
| 20260502044413 | 13 | 58 | 8.0 | 19.3 | 0.00 | 9.35 | 9.35 | 100 | 1013.0 |
| 20260502044314 | 13 | 16 | 9.7 | 19.3 | 0.00 | 9.35 | 9.35 | 100 | 1013.1 |
| 20260502044213 | 13 | 23 | 6.4 | 17.7 | 0.00 | 9.35 | 9.35 | 100 | 1013.1 |
| 20260502044111 | 13 | 30 | 6.4 | 17.7 | 0.00 | 9.35 | 9.35 | 100 | 1013.0 |
| 20260502044004 | 13 | 48 | 4.8 | 17.7 | 0.00 | 9.35 | 9.35 | 100 | 1013.1 |
| 20260502043904 | 13 | 65 | 4.8 | 17.7 | 0.00 | 9.35 | 9.35 | 100 | 1013.0 |
| 20260502043802 | 13 | 0 | 8.0 | 17.7 | 0.00 | 9.35 | 9.35 | 100 | 1013.1 |
| 20260502043702 | 13 | 38 | 8.0 | 17.7 | 0.00 | 9.35 | 9.35 | 100 | 1013.1 |
| 20260502043602 | 13 | 111 | 6.4 | 11.3 | 0.00 | 9.35 | 9.35 | 100 | 1013.1 |
| 20260502043502 | 13 | 13 | 3.2 | 8.0 | 0.00 | 9.35 | 9.35 | 100 | 1013.1 |
| 20260502043403 | 13 | 82 | 1.6 | 8.0 | 0.00 | 9.35 | 9.35 | 100 | 1013.2 |
| 20260502043304 | 13 | 69 | 3.2 | 11.3 | 0.00 | 9.35 | 9.35 | 100 | 1013.1 |
| 20260502043203 | 13 | 345 | 1.6 | 11.3 | 0.00 | 9.35 | 9.35 | 100 | 1013.1 |
| 20260502043103 | 13 | 353 | 3.2 | 11.3 | 0.00 | 9.35 | 9.35 | 100 | 1013.1 |
| 20260502043003 | 13 | 316 | 4.8 | 11.3 | 0.00 | 9.35 | 9.35 | 100 | 1013.1 |
| 20260502042904 | 13 | 75 | 4.8 | 11.3 | 0.00 | 9.35 | 9.35 | 100 | 1013.1 |
| 20260502042803 | 13 | 0 | 4.8 | 14.5 | 0.00 | 9.35 | 9.35 | 100 | 1013.1 |
| 20260502042703 | 13 | 331 | 4.8 | 14.5 | 0.00 | 9.35 | 9.35 | 100 | 1013.2 |
| 20260502042603 | 13 | 348 | 4.8 | 14.5 | 0.00 | 9.35 | 9.35 | 100 | 1013.1 |
| 20260502042504 | 13 | 87 | 4.8 | 14.5 | 0.00 | 9.35 | 9.35 | 100 | 1013.1 |
| 20260502042403 | 13 | 24 | 6.4 | 14.5 | 0.00 | 9.35 | 9.35 | 100 | 1013.2 |
| 20260502042305 | 13 | 55 | 4.8 | 14.5 | 0.00 | 9.35 | 9.35 | 100 | 1013.2 |
| 20260502042202 | 13 | 86 | 6.4 | 14.5 | 0.00 | 9.35 | 9.35 | 100 | 1013.2 |
| 20260502042103 | 13 | 38 | 6.4 | 14.5 | 0.00 | 9.35 | 9.35 | 100 | 1013.3 |
| 20260502042003 | 13 | 55 | 8.0 | 14.5 | 0.00 | 9.35 | 9.35 | 100 | 1013.2 |
| 20260502041903 | 13 | 69 | 8.0 | 14.5 | 0.00 | 9.35 | 9.35 | 100 | 1013.2 |
| 20260502041804 | 13 | 39 | 3.2 | 11.3 | 0.00 | 9.35 | 9.35 | 100 | 1013.1 |
| 20260502041701 | 13 | 18 | 3.2 | 11.3 | 0.00 | 9.35 | 9.35 | 100 | 1013.1 |
| 20260502041602 | 13 | 290 | 4.8 | 11.3 | 0.00 | 9.35 | 9.35 | 100 | 1013.0 |
| 20260502041502 | 13 | 350 | 3.2 | 11.3 | 0.00 | 9.35 | 9.35 | 100 | 1013.1 |
| 20260502041403 | 13 | 65 | 4.8 | 11.3 | 0.00 | 9.35 | 9.35 | 100 | 1013.1 |
| 20260502041302 | 13 | 254 | 4.8 | 11.3 | 0.00 | 9.35 | 9.35 | 100 | 1013.1 |
| 20260502041202 | 13 | 0 | 3.2 | 9.7 | 0.00 | 9.35 | 9.35 | 100 | 1013.0 |
| 20260502041102 | 13 | 11 | 4.8 | 9.7 | 0.00 | 9.35 | 9.35 | 100 | 1012.8 |
| 20260502041002 | 13 | 289 | 6.4 | 9.7 | 0.00 | 9.35 | 9.35 | 100 | 1012.8 |
| 20260502040902 | 13 | 0 | 4.8 | 9.7 | 0.00 | 9.35 | 9.35 | 100 | 1012.8 |
| 20260502040803 | 13 | 79 | 3.2 | 11.3 | 0.00 | 9.35 | 9.35 | 100 | 1012.8 |
| 20260502040702 | 13 | 0 | 3.2 | 11.3 | 0.00 | 9.35 | 9.35 | 100 | 1012.8 |
| 20260502040602 | 13 | 49 | 4.8 | 11.3 | 0.00 | 9.35 | 9.35 | 100 | 1012.9 |
| 20260502040502 | 13 | 14 | 4.8 | 11.3 | 0.00 | 9.35 | 9.35 | 100 | 1012.8 |
| 20260502040402 | 13 | 350 | 6.4 | 11.3 | 0.00 | 9.35 | 9.35 | 100 | 1012.9 |
| 20260502040304 | 13 | 0 | 4.8 | 14.5 | 0.00 | 9.35 | 9.35 | 100 | 1012.9 |
| 20260502040203 | 13 | 0 | 4.8 | 14.5 | 0.00 | 9.35 | 9.35 | 100 | 1012.9 |
| 20260502040103 | 13 | 8 | 6.4 | 14.5 | 0.00 | 9.35 | 9.35 | 100 | 1012.9 |
| 20260502040002 | 13 | 0 | 6.4 | 14.5 | 0.00 | 9.35 | 9.35 | 100 | 1012.8 |
| 20260502035904 | 13 | 37 | 6.4 | 14.5 | 0.00 | 9.35 | 9.35 | 100 | 1012.8 |
| 20260502035802 | 13 | 313 | 6.4 | 14.5 | 0.00 | 9.35 | 9.35 | 100 | 1012.8 |
| 20260502035702 | 13 | 0 | 8.0 | 14.5 | 0.00 | 9.35 | 9.35 | 100 | 1012.7 |
| 20260502035604 | 13 | 20 | 3.2 | 14.5 | 0.00 | 9.35 | 9.35 | 100 | 1012.7 |
| 20260502035505 | 13 | 28 | 4.8 | 14.5 | 0.00 | 9.35 | 9.35 | 100 | 1012.7 |
| 20260502035403 | 13 | 0 | 6.4 | 14.5 | 0.00 | 9.35 | 9.35 | 100 | 1012.7 |
| 20260502035306 | 13 | 21 | 4.8 | 14.5 | 0.00 | 9.35 | 9.35 | 100 | 1012.7 |
| 20260502035203 | 13 | 351 | 4.8 | 14.5 | 0.00 | 9.35 | 9.35 | 100 | 1012.7 |
| 20260502035102 | 13 | 357 | 8.0 | 14.5 | 0.00 | 9.35 | 9.35 | 100 | 1012.6 |
| 20260502035005 | 13 | 35 | 8.0 | 14.5 | 0.00 | 9.35 | 9.35 | 100 | 1012.6 |
| 20260502034903 | 13 | 330 | 6.4 | 14.5 | 0.00 | 9.35 | 9.35 | 100 | 1012.6 |
| 20260502034802 | 13 | 340 | 3.2 | 9.7 | 0.00 | 9.35 | 9.35 | 100 | 1012.7 |
| 20260502034701 | 13 | 330 | 3.2 | 11.3 | 0.00 | 9.35 | 9.35 | 100 | 1012.6 |
| 20260502034603 | 13 | 343 | 4.8 | 11.3 | 0.00 | 9.35 | 9.35 | 100 | 1012.6 |
| 20260502034504 | 13 | 317 | 4.8 | 11.3 | 0.00 | 9.35 | 9.35 | 100 | 1012.6 |
| 20260502034402 | 13 | 329 | 3.2 | 16.1 | 0.00 | 9.35 | 9.35 | 100 | 1012.6 |
| 20260502034304 | 13 | 306 | 4.8 | 16.1 | 0.00 | 9.35 | 9.35 | 100 | 1012.5 |
| 20260502034203 | 13 | 306 | 4.8 | 16.1 | 0.00 | 9.35 | 9.35 | 100 | 1012.5 |
| 20260502034104 | 13 | 306 | 4.8 | 16.1 | 0.00 | 9.35 | 9.35 | 100 | 1012.5 |
| 20260502034005 | 13 | 306 | 4.8 | 16.1 | 0.00 | 9.35 | 9.35 | 100 | 1012.5 |
| 20260502033903 | 13 | 0 | 4.8 | 16.1 | 0.00 | 9.35 | 9.35 | 100 | 1012.5 |
| 20260502033802 | 13 | 20 | 4.8 | 16.1 | 0.00 | 9.35 | 9.35 | 100 | 1012.5 |
| 20260502033702 | 13 | 337 | 4.8 | 16.1 | 0.03 | 9.35 | 9.35 | 100 | 1012.5 |
| 20260502033604 | 13 | 4 | 8.0 | 16.1 | 0.03 | 9.35 | 9.35 | 100 | 1012.3 |
| 20260502033504 | 13 | 45 | 8.0 | 16.1 | 0.03 | 9.35 | 9.35 | 100 | 1012.4 |
| 20260502033402 | 13 | 20 | 6.4 | 8.0 | 0.03 | 9.35 | 9.35 | 100 | 1012.3 |
| 20260502033302 | 13 | 340 | 6.4 | 6.4 | 0.03 | 9.35 | 9.35 | 100 | 1012.4 |
| 20260502033203 | -17 | 0.0 | 0.0 | 0.03 | 9.35 | 9.35 | 1012.4 | ||
| 20260502033103 | -17 | 0.0 | 0.0 | 0.03 | 9.35 | 9.35 | 1012.4 | ||
| 20260502033003 | -17 | 0.0 | 0.0 | 0.03 | 9.35 | 9.35 | 1012.4 | ||
| 20260502032903 | -17 | 0.0 | 0.0 | 0.03 | 9.35 | 9.35 | 1012.4 | ||
| 20260502032803 | -17 | 56 | 6.4 | 3.2 | 0.03 | 9.35 | 9.35 | 1012.5 | |
| 20260502032703 | 13 | 56 | 6.4 | 16.1 | 0.03 | 9.35 | 9.35 | 100 | 1012.5 |
| 20260502032603 | 13 | 56 | 6.4 | 16.1 | 0.03 | 9.35 | 9.35 | 100 | 1012.4 |
| 20260502032504 | 13 | 56 | 6.4 | 16.1 | 0.03 | 9.35 | 9.35 | 100 | 1012.4 |
| 20260502032403 | 13 | 56 | 6.4 | 16.1 | 0.03 | 9.35 | 9.35 | 100 | 1012.2 |
| 20260502032305 | 13 | 56 | 6.4 | 17.7 | 0.03 | 9.35 | 9.35 | 100 | 1012.1 |
| 20260502032203 | 13 | 56 | 6.4 | 19.3 | 0.03 | 9.35 | 9.35 | 100 | 1012.1 |
| 20260502032103 | 13 | 56 | 6.4 | 19.3 | 0.03 | 9.35 | 9.35 | 100 | 1012.0 |
| 20260502032003 | 13 | 56 | 6.4 | 19.3 | 0.03 | 9.35 | 9.35 | 100 | 1011.9 |
| 20260502031903 | 13 | 56 | 6.4 | 19.3 | 0.03 | 9.35 | 9.35 | 100 | 1011.8 |
| 20260502031802 | 13 | 49 | 8.0 | 19.3 | 0.03 | 9.35 | 9.35 | 100 | 1011.7 |
| 20260502031703 | 13 | 116 | 9.7 | 19.3 | 0.03 | 9.35 | 9.35 | 100 | 1011.6 |
| 20260502031603 | 13 | 116 | 9.7 | 19.3 | 0.03 | 9.35 | 9.35 | 100 | 1011.6 |
| 20260502031504 | 13 | 116 | 9.7 | 19.3 | 0.05 | 9.35 | 9.35 | 100 | 1011.6 |
| 20260502031404 | 13 | 44 | 9.7 | 19.3 | 0.05 | 9.35 | 9.35 | 100 | 1011.6 |
| 20260502031303 | 13 | 25 | 9.7 | 19.3 | 0.05 | 9.35 | 9.35 | 100 | 1011.7 |
| 20260502031202 | 13 | 8 | 8.0 | 17.7 | 0.05 | 9.35 | 9.35 | 100 | 1011.6 |
| 20260502031103 | 13 | 61 | 8.0 | 17.7 | 0.05 | 9.35 | 9.35 | 100 | 1011.7 |
| 20260502031003 | 13 | 7 | 8.0 | 16.1 | 0.05 | 9.35 | 9.35 | 100 | 1011.7 |
| 20260502030904 | 13 | 31 | 11.3 | 16.1 | 0.05 | 9.35 | 9.35 | 100 | 1011.7 |
| 20260502030803 | 13 | 247 | 4.8 | 8.0 | 0.05 | 9.35 | 9.35 | 100 | 1011.7 |
| 20260502030703 | 13 | 247 | 4.8 | 9.7 | 0.05 | 9.35 | 9.35 | 100 | 1011.7 |
| 20260502030602 | 13 | 247 | 4.8 | 9.7 | 0.05 | 9.35 | 9.35 | 100 | 1011.8 |
| 20260502030504 | 13 | 247 | 4.8 | 9.7 | 0.05 | 9.35 | 9.35 | 100 | 1011.8 |
| 20260502030402 | 13 | 247 | 4.8 | 11.3 | 0.05 | 9.35 | 9.35 | 100 | 1011.8 |
| 20260502030303 | 13 | 247 | 4.8 | 11.3 | 0.05 | 9.35 | 9.35 | 100 | 1011.8 |
| 20260502030203 | 13 | 247 | 4.8 | 11.3 | 0.08 | 9.35 | 9.35 | 100 | 1011.7 |
| 20260502030004 | 13 | 42 | 4.8 | 11.3 | 0.08 | 9.35 | 9.35 | 100 | 1011.8 |
| 20260502025901 | 13 | 28 | 6.4 | 11.3 | 0.08 | 9.35 | 9.35 | 100 | 1011.9 |
| 20260502025803 | 13 | 17 | 4.8 | 11.3 | 0.08 | 9.35 | 9.35 | 100 | 1011.9 |
| 20260502025703 | 13 | 7 | 4.8 | 11.3 | 0.08 | 9.35 | 9.35 | 100 | 1011.9 |
| 20260502025603 | 13 | 341 | 8.0 | 11.3 | 0.08 | 9.35 | 9.35 | 100 | 1012.0 |
| 20260502025503 | 13 | 354 | 6.4 | 11.3 | 0.10 | 9.35 | 9.35 | 100 | 1012.0 |
| 20260502025402 | 13 | 55 | 4.8 | 11.3 | 0.10 | 9.35 | 9.35 | 100 | 1011.9 |
| 20260502025306 | 13 | 44 | 6.4 | 11.3 | 0.10 | 9.35 | 9.35 | 100 | 1011.9 |
| 20260502025203 | 13 | 3 | 6.4 | 11.3 | 0.10 | 9.35 | 9.35 | 100 | 1011.8 |
| 20260502025103 | 13 | 336 | 4.8 | 11.3 | 0.10 | 9.35 | 9.35 | 100 | 1011.8 |
| 20260502025003 | 13 | 0 | 3.2 | 11.3 | 0.10 | 9.35 | 9.35 | 100 | 1011.7 |
| 20260502024902 | 13 | 32 | 3.2 | 11.3 | 0.10 | 9.35 | 9.35 | 100 | 1011.7 |
| 20260502024803 | 13 | 61 | 3.2 | 14.5 | 0.10 | 9.35 | 9.35 | 100 | 1011.6 |
| 20260502024702 | 13 | 8 | 3.2 | 14.5 | 0.10 | 9.35 | 9.35 | 100 | 1011.6 |
| 20260502024602 | 13 | 42 | 3.2 | 14.5 | 0.13 | 9.35 | 9.35 | 100 | 1011.7 |
| 20260502024503 | 13 | 32 | 1.6 | 20.9 | 0.13 | 9.35 | 9.35 | 100 | 1011.6 |
| 20260502024402 | 13 | 102 | 6.4 | 20.9 | 0.13 | 9.35 | 9.35 | 100 | 1011.7 |
| 20260502024303 | 13 | 102 | 6.4 | 20.9 | 0.13 | 9.35 | 9.35 | 100 | 1011.5 |
| 20260502024204 | 13 | 102 | 6.4 | 20.9 | 0.13 | 9.35 | 9.35 | 100 | 1011.5 |
| 20260502024104 | 13 | 102 | 6.4 | 20.9 | 0.13 | 9.35 | 9.35 | 100 | 1011.6 |
| 20260502024004 | 13 | 102 | 6.4 | 20.9 | 0.13 | 9.35 | 9.35 | 100 | 1011.7 |
| 20260502023903 | 13 | 58 | 6.4 | 20.9 | 0.15 | 9.35 | 9.35 | 100 | 1011.7 |
| 20260502023802 | 13 | 71 | 6.4 | 20.9 | 0.15 | 9.32 | 9.32 | 100 | 1011.8 |
| 20260502023703 | 13 | 333 | 6.4 | 20.9 | 0.13 | 9.32 | 9.32 | 100 | 1011.8 |
| 20260502023602 | 13 | 49 | 8.0 | 20.9 | 0.13 | 9.32 | 9.32 | 100 | 1011.9 |
| 20260502023501 | 13 | 3 | 8.0 | 19.3 | 0.13 | 9.32 | 9.32 | 100 | 1012.0 |
| 20260502023403 | 13 | 321 | 4.8 | 19.3 | 0.13 | 9.32 | 9.32 | 100 | 1011.9 |
| 20260502023304 | 13 | 350 | 6.4 | 19.3 | 0.13 | 9.32 | 9.32 | 100 | 1012.0 |
| 20260502023203 | 13 | 17 | 9.7 | 19.3 | 0.13 | 9.32 | 9.32 | 100 | 1012.0 |
| 20260502023102 | 13 | 331 | 6.4 | 19.3 | 0.13 | 9.32 | 9.32 | 100 | 1011.9 |
| 20260502023004 | -17 | 18 | 3.2 | 3.2 | 0.15 | 9.32 | 9.32 | 1011.9 | |
| 20260502022903 | -17 | 0.0 | 0.0 | 0.15 | 9.32 | 9.32 | 1011.9 | ||
| 20260502022803 | -17 | 0.0 | 0.0 | 0.15 | 9.32 | 9.32 | 1011.7 | ||
| 20260502022703 | -17 | 0.0 | 0.0 | 0.15 | 9.32 | 9.32 | 1011.8 | ||
| 20260502022603 | -17 | 18 | 6.4 | 3.2 | 0.15 | 9.32 | 9.32 | 1011.8 | |
| 20260502022503 | 13 | 18 | 6.4 | 14.5 | 0.18 | 9.32 | 9.32 | 100 | 1011.9 |
| 20260502022403 | 13 | 18 | 6.4 | 14.5 | 0.18 | 9.32 | 9.32 | 100 | 1011.8 |
| 20260502022306 | 13 | 18 | 6.4 | 14.5 | 0.18 | 9.32 | 9.32 | 100 | 1011.7 |
| 20260502022202 | 13 | 18 | 6.4 | 14.5 | 0.18 | 9.32 | 9.32 | 100 | 1011.7 |
| 20260502022103 | 13 | 18 | 6.4 | 14.5 | 0.18 | 9.32 | 9.32 | 100 | 1011.5 |
| 20260502022003 | 13 | 18 | 6.4 | 14.5 | 0.18 | 9.32 | 9.32 | 100 | 1011.5 |
| 20260502021902 | 13 | 18 | 6.4 | 14.5 | 0.20 | 9.32 | 9.32 | 100 | 1011.5 |
| 20260502021802 | 13 | 18 | 6.4 | 14.5 | 0.20 | 9.32 | 9.32 | 100 | 1011.4 |
| 20260502021702 | 13 | 18 | 6.4 | 14.5 | 0.20 | 9.32 | 9.32 | 100 | 1011.3 |
| 20260502021556 | 13 | 18 | 4.8 | 14.5 | 0.20 | 9.30 | 9.30 | 100 | 1011.4 |
| 20260502021452 | 13 | 321 | 3.2 | 14.5 | 0.18 | 9.30 | 9.30 | 100 | 1011.3 |
| 20260502021351 | 13 | 299 | 6.4 | 14.5 | 0.18 | 9.30 | 9.30 | 100 | 1011.4 |
| 20260502021236 | 13 | 345 | 6.4 | 14.5 | 0.18 | 9.30 | 9.30 | 100 | 1011.3 |
| 20260502021134 | 13 | 331 | 3.2 | 11.3 | 0.20 | 9.30 | 9.30 | 100 | 1011.3 |
| 20260502021031 | 13 | 8 | 3.2 | 11.3 | 0.20 | 9.30 | 9.30 | 100 | 1011.3 |
| 20260502020932 | 13 | 320 | 4.8 | 11.3 | 0.20 | 9.30 | 9.30 | 100 | 1011.1 |
| 20260502020827 | 13 | 212 | 4.8 | 11.3 | 0.20 | 9.30 | 9.30 | 100 | 1011.0 |
| 20260502020715 | 13 | 94 | 6.4 | 11.3 | 0.20 | 9.30 | 9.30 | 100 | 1011.0 |
| 20260502020613 | 13 | 350 | 6.4 | 9.7 | 0.20 | 9.30 | 9.30 | 100 | 1010.9 |
| 20260502020513 | 13 | 0 | 3.2 | 9.7 | 0.23 | 9.30 | 9.30 | 100 | 1010.9 |
| 20260502020412 | 13 | 355 | 3.2 | 9.7 | 0.23 | 9.27 | 9.27 | 100 | 1010.8 |
| 20260502020302 | 13 | 0 | 6.4 | 9.7 | 0.23 | 9.27 | 9.27 | 100 | 1010.8 |
| 20260502020201 | 13 | 10 | 6.4 | 9.7 | 0.20 | 9.27 | 9.27 | 100 | 1010.8 |
| 20260502020003 | 13 | 307 | 4.8 | 19.3 | 0.23 | 9.27 | 9.27 | 100 | 1010.7 |
| 20260502015902 | 13 | 25 | 4.8 | 19.3 | 0.23 | 9.27 | 9.27 | 100 | 1010.7 |
| 20260502015802 | 13 | 63 | 3.2 | 19.3 | 0.23 | 9.27 | 9.27 | 100 | 1010.7 |
| 20260502015702 | 13 | 3 | 1.6 | 19.3 | 0.23 | 9.27 | 9.27 | 100 | 1010.7 |
| 20260502015602 | 13 | 27 | 4.8 | 19.3 | 0.23 | 9.27 | 9.27 | 100 | 1010.8 |
| 20260502015503 | 13 | 41 | 4.8 | 20.9 | 0.20 | 9.25 | 9.25 | 100 | 1010.8 |
| 20260502015403 | 13 | 316 | 4.8 | 20.9 | 0.20 | 9.25 | 9.25 | 100 | 1010.8 |
| 20260502015305 | 13 | 27 | 9.7 | 20.9 | 0.28 | 9.25 | 9.25 | 100 | 1010.7 |
| 20260502015203 | 13 | 111 | 9.7 | 20.9 | 0.28 | 9.25 | 9.25 | 100 | 1010.6 |
| 20260502015102 | 13 | 303 | 8.0 | 20.9 | 0.28 | 9.25 | 9.25 | 100 | 1010.6 |
| 20260502015003 | 13 | 52 | 8.0 | 20.9 | 0.28 | 9.25 | 9.25 | 100 | 1010.5 |
| 20260502014902 | 13 | 49 | 6.4 | 20.9 | 0.28 | 9.25 | 9.25 | 100 | 1010.5 |
| 20260502014802 | 13 | 55 | 6.4 | 20.9 | 0.28 | 9.25 | 9.25 | 100 | 1010.5 |
| 20260502014703 | 13 | 0 | 8.0 | 20.9 | 0.28 | 9.22 | 9.22 | 100 | 1010.5 |
| 20260502014603 | 13 | 0 | 8.0 | 20.9 | 0.25 | 9.22 | 9.22 | 100 | 1010.5 |
| 20260502014503 | 13 | 321 | 6.4 | 11.3 | 0.25 | 9.22 | 9.22 | 100 | 1010.5 |
| 20260502014402 | 13 | 0 | 3.2 | 14.5 | 0.25 | 9.22 | 9.22 | 100 | 1010.6 |
| 20260502014304 | 13 | 355 | 3.2 | 14.5 | 0.25 | 9.22 | 9.22 | 100 | 1010.7 |
| 20260502014202 | 13 | 14 | 3.2 | 14.5 | 0.25 | 9.22 | 9.22 | 100 | 1010.9 |
| 20260502014102 | 13 | 62 | 4.8 | 14.5 | 0.25 | 9.22 | 9.22 | 100 | 1010.8 |
| 20260502014002 | 13 | 63 | 3.2 | 14.5 | 0.25 | 9.19 | 9.19 | 100 | 1011.0 |
| 20260502013903 | 13 | 324 | 4.8 | 14.5 | 0.23 | 9.19 | 9.19 | 100 | 1011.0 |
| 20260502013801 | 13 | 17 | 3.2 | 14.5 | 0.23 | 9.19 | 9.19 | 100 | 1011.0 |
| 20260502013701 | 13 | 31 | 3.2 | 14.5 | 0.25 | 9.19 | 9.19 | 100 | 1010.9 |
| 20260502013602 | 13 | 59 | 4.8 | 14.5 | 0.25 | 9.19 | 9.19 | 100 | 1010.9 |
| 20260502013502 | 13 | 89 | 4.8 | 14.5 | 0.25 | 9.19 | 9.19 | 100 | 1010.9 |
| 20260502013402 | 13 | 354 | 4.8 | 14.5 | 0.25 | 9.19 | 9.19 | 100 | 1011.0 |
| 20260502013301 | 13 | 0 | 6.4 | 17.7 | 0.25 | 9.19 | 9.19 | 100 | 1011.0 |
| 20260502013202 | 13 | 0 | 3.2 | 17.7 | 0.25 | 9.19 | 9.19 | 100 | 1011.1 |
| 20260502013102 | 13 | 302 | 6.4 | 17.7 | 0.28 | 9.17 | 9.17 | 100 | 1011.2 |
| 20260502013002 | 13 | 355 | 8.0 | 17.7 | 0.25 | 9.17 | 9.17 | 100 | 1011.2 |
| 20260502012900 | 13 | 52 | 6.4 | 17.7 | 0.25 | 9.17 | 9.17 | 100 | 1011.2 |
| 20260502012801 | 13 | 300 | 4.8 | 17.7 | 0.25 | 9.17 | 9.17 | 100 | 1011.1 |
| 20260502012700 | 13 | 288 | 3.2 | 17.7 | 0.25 | 9.17 | 9.17 | 100 | 1011.1 |
| 20260502012602 | 13 | 289 | 4.8 | 17.7 | 0.28 | 9.14 | 9.14 | 100 | 1010.9 |
| 20260502012502 | 13 | 31 | 6.4 | 17.7 | 0.25 | 9.14 | 9.14 | 100 | 1010.8 |
| 20260502012401 | 14 | 354 | 4.8 | 17.7 | 0.25 | 9.14 | 9.14 | 100 | 1010.6 |
| 20260502012301 | 14 | 23 | 3.2 | 9.7 | 0.25 | 9.14 | 9.14 | 100 | 1010.6 |
| 20260502012200 | 14 | 87 | 3.2 | 11.3 | 0.25 | 9.12 | 9.12 | 100 | 1010.5 |
| 20260502012102 | 14 | 353 | 4.8 | 11.3 | 0.25 | 9.12 | 9.12 | 100 | 1010.5 |
| 20260502012001 | 14 | 353 | 4.8 | 11.3 | 0.25 | 9.12 | 9.12 | 100 | 1010.4 |
| 20260502011900 | 14 | 344 | 4.8 | 17.7 | 0.25 | 9.12 | 9.12 | 100 | 1010.4 |
| 20260502011759 | 14 | 344 | 4.8 | 17.7 | 0.25 | 9.12 | 9.12 | 100 | 1010.4 |
| 20260502011700 | 14 | 344 | 4.8 | 17.7 | 0.25 | 9.12 | 9.12 | 100 | 1010.3 |
| 20260502011559 | 14 | 344 | 4.8 | 17.7 | 0.28 | 9.12 | 9.12 | 100 | 1010.2 |
| 20260502011501 | 14 | 344 | 4.8 | 17.7 | 0.28 | 9.12 | 9.12 | 100 | 1010.0 |
| 20260502011359 | 14 | 344 | 4.8 | 17.7 | 0.28 | 9.12 | 9.12 | 100 | 1009.9 |
| 20260502011259 | 14 | 65 | 3.2 | 17.7 | 0.28 | 9.09 | 9.09 | 100 | 1009.8 |
| 20260502011158 | 14 | 66 | 1.6 | 17.7 | 0.25 | 9.09 | 9.09 | 100 | 1009.8 |
| 20260502011058 | 14 | 173 | 6.4 | 17.7 | 0.28 | 9.09 | 9.09 | 100 | 1009.8 |
| 20260502010959 | 14 | 63 | 6.4 | 17.7 | 0.28 | 9.09 | 9.09 | 100 | 1009.7 |
| 20260502010858 | 14 | 329 | 6.4 | 14.5 | 0.28 | 9.09 | 9.09 | 100 | 1009.6 |
| 20260502010800 | 14 | 281 | 6.4 | 17.7 | 0.28 | 9.09 | 9.09 | 100 | 1009.5 |
| 20260502010658 | 14 | 25 | 4.8 | 17.7 | 0.28 | 9.07 | 9.07 | 100 | 1009.5 |
| 20260502010600 | 14 | 7 | 4.8 | 17.7 | 0.25 | 9.07 | 9.07 | 100 | 1009.5 |
| 20260502010500 | 14 | 282 | 3.2 | 17.7 | 0.28 | 9.07 | 9.07 | 100 | 1009.5 |
| 20260502010359 | 14 | 338 | 3.2 | 17.7 | 0.28 | 9.07 | 9.07 | 100 | 1009.5 |
| 20260502010300 | 14 | 111 | 3.2 | 17.7 | 0.28 | 9.07 | 9.07 | 100 | 1009.5 |
| 20260502010158 | 14 | 341 | 6.4 | 17.7 | 0.28 | 9.07 | 9.07 | 100 | 1009.5 |
| 20260502010059 | 14 | 337 | 6.4 | 17.7 | 0.30 | 9.04 | 9.04 | 100 | 1009.5 |
| 20260502005959 | 14 | 324 | 8.0 | 17.7 | 0.28 | 9.04 | 9.04 | 100 | 1009.5 |
| 20260502005859 | 14 | 87 | 9.7 | 17.7 | 0.28 | 9.04 | 9.04 | 100 | 1009.5 |
| 20260502005758 | 14 | 288 | 6.4 | 16.1 | 0.30 | 9.04 | 9.04 | 100 | 1009.5 |
| 20260502005659 | 14 | 59 | 4.8 | 11.3 | 0.30 | 9.04 | 9.04 | 100 | 1009.5 |
| 20260502005559 | 14 | 32 | 4.8 | 11.3 | 0.30 | 9.04 | 9.04 | 100 | 1009.5 |
| 20260502005457 | 14 | 41 | 6.4 | 11.3 | 0.30 | 8.97 | 8.97 | 100 | 1009.5 |
| 20260502005400 | 14 | 347 | 9.7 | 11.3 | 0.28 | 8.97 | 8.97 | 100 | 1009.4 |
| 20260502005257 | -17 | 0.0 | 0.0 | 0.25 | 8.94 | 8.94 | 1009.3 | ||
| 20260502005157 | -17 | 0.0 | 0.0 | 0.28 | 8.94 | 8.94 | 1009.2 | ||
| 20260502005057 | -17 | 0.0 | 0.0 | 0.28 | 8.94 | 8.94 | 1009.2 | ||
| 20260502004957 | -17 | 0.0 | 0.0 | 0.28 | 8.94 | 8.94 | 1009.1 | ||
| 20260502004857 | -17 | 0.0 | 0.0 | 0.28 | 8.94 | 8.94 | 1009.2 | ||
| 20260502004755 | -17 | 0.0 | 0.0 | 0.28 | 8.94 | 8.94 | 1009.3 | ||
| 20260502004655 | 14 | 47 | 3.2 | 8.0 | 0.30 | 8.94 | 8.94 | 100 | 1009.3 |
| 20260502004555 | 14 | 47 | 3.2 | 8.0 | 0.30 | 8.94 | 8.94 | 100 | 1009.3 |
| 20260502004455 | 14 | 47 | 3.2 | 8.0 | 0.30 | 8.94 | 8.94 | 100 | 1009.3 |
| 20260502004355 | 14 | 47 | 3.2 | 9.7 | 0.30 | 8.94 | 8.94 | 100 | 1009.3 |
| 20260502004254 | 14 | 47 | 3.2 | 9.7 | 0.33 | 8.94 | 8.94 | 100 | 1009.3 |
| 20260502004153 | 14 | 47 | 3.2 | 9.7 | 0.33 | 8.94 | 8.94 | 100 | 1009.2 |
| 20260502004055 | 14 | 47 | 3.2 | 9.7 | 0.33 | 8.94 | 8.94 | 100 | 1009.3 |
| 20260502003953 | 14 | 47 | 3.2 | 9.7 | 0.33 | 8.94 | 8.94 | 100 | 1009.3 |
| 20260502003854 | 14 | 47 | 3.2 | 9.7 | 0.36 | 8.94 | 8.94 | 100 | 1009.2 |
| 20260502003752 | 14 | 47 | 3.2 | 9.7 | 0.36 | 8.94 | 8.94 | 100 | 1009.3 |
| 20260502003652 | 14 | 85 | 3.2 | 9.7 | 0.36 | 8.94 | 8.94 | 100 | 1009.3 |
| 20260502003552 | 14 | 66 | 3.2 | 9.7 | 0.36 | 8.94 | 8.94 | 100 | 1009.3 |
| 20260502003452 | 14 | 341 | 6.4 | 9.7 | 0.36 | 8.94 | 8.94 | 100 | 1009.5 |
| 20260502003352 | 15 | 45 | 4.8 | 9.7 | 0.36 | 8.94 | 8.94 | 100 | 1009.4 |
| 20260502003252 | 15 | 71 | 3.2 | 8.0 | 0.36 | 8.94 | 8.94 | 100 | 1009.4 |
| 20260502003154 | 15 | 0 | 3.2 | 11.3 | 0.36 | 8.92 | 8.92 | 100 | 1009.4 |
| 20260502003054 | 15 | 0 | 6.4 | 11.3 | 0.36 | 8.92 | 8.92 | 100 | 1009.4 |
| 20260502002953 | 15 | 39 | 6.4 | 11.3 | 0.36 | 8.92 | 8.92 | 100 | 1009.4 |
| 20260502002853 | 15 | 39 | 3.2 | 11.3 | 0.36 | 8.92 | 8.92 | 100 | 1009.4 |
| 20260502002753 | 15 | 34 | 3.2 | 11.3 | 0.36 | 8.92 | 8.92 | 100 | 1009.4 |
| 20260502002653 | 15 | 30 | 4.8 | 11.3 | 0.36 | 8.89 | 8.89 | 100 | 1009.3 |
| 20260502002551 | 15 | 329 | 6.4 | 11.3 | 0.33 | 8.89 | 8.89 | 100 | 1009.2 |
| 20260502002454 | 15 | 45 | 3.2 | 11.3 | 0.33 | 8.89 | 8.89 | 100 | 1009.2 |
| 20260502002352 | 15 | 7 | 3.2 | 11.3 | 0.33 | 8.89 | 8.89 | 100 | 1009.2 |
| 20260502002252 | 15 | 0 | 4.8 | 11.3 | 0.33 | 8.89 | 8.89 | 100 | 1009.1 |
| 20260502002153 | 15 | 96 | 3.2 | 9.7 | 0.33 | 8.89 | 8.89 | 100 | 1009.2 |
| 20260502002052 | 15 | 58 | 3.2 | 9.7 | 0.33 | 8.89 | 8.89 | 100 | 1009.2 |
| 20260502001952 | 15 | 44 | 1.6 | 9.7 | 0.30 | 8.86 | 8.86 | 100 | 1009.4 |
| 20260502001854 | 15 | 18 | 1.6 | 9.7 | 0.30 | 8.86 | 8.86 | 100 | 1009.5 |
| 20260502001752 | 15 | 18 | 1.6 | 9.7 | 0.30 | 8.86 | 8.86 | 100 | 1009.5 |
| 20260502001652 | 15 | 18 | 1.6 | 9.7 | 0.30 | 8.84 | 8.84 | 100 | 1009.5 |
| 20260502001553 | 15 | 0 | 1.6 | 9.7 | 0.28 | 8.84 | 8.84 | 100 | 1009.5 |
| 20260502001451 | 15 | 334 | 4.8 | 9.7 | 0.28 | 8.84 | 8.84 | 100 | 1009.5 |
| 20260502001353 | 15 | 25 | 3.2 | 9.7 | 0.28 | 8.84 | 8.84 | 100 | 1009.4 |
| 20260502001251 | 15 | 355 | 3.2 | 9.7 | 0.28 | 8.84 | 8.84 | 100 | 1009.2 |
| 20260502001152 | 15 | 3 | 3.2 | 9.7 | 0.28 | 8.81 | 8.81 | 100 | 1009.1 |
| 20260502001051 | 15 | 47 | 4.8 | 16.1 | 0.25 | 8.81 | 8.81 | 100 | 1008.9 |
| 20260502000953 | 15 | 86 | 3.2 | 16.1 | 0.25 | 8.81 | 8.81 | 100 | 1008.8 |
| 20260502000851 | 15 | 87 | 3.2 | 16.1 | 0.25 | 8.81 | 8.81 | 100 | 1008.5 |
| 20260502000751 | 15 | 83 | 4.8 | 16.1 | 0.25 | 8.81 | 8.81 | 100 | 1008.4 |
| 20260502000652 | 15 | 58 | 4.8 | 16.1 | 0.25 | 8.81 | 8.81 | 100 | 1008.1 |
| 20260502000551 | 15 | 69 | 3.2 | 16.1 | 0.25 | 8.79 | 8.79 | 100 | 1007.8 |
| 20260502000454 | 15 | 30 | 3.2 | 16.1 | 0.23 | 8.79 | 8.79 | 100 | 1007.6 |
| 20260502000354 | 15 | 69 | 4.8 | 16.1 | 0.23 | 8.79 | 8.79 | 100 | 1007.4 |
| 20260502000252 | 15 | 102 | 6.4 | 16.1 | 0.23 | 8.79 | 8.79 | 100 | 1007.2 |
| 20260502000152 | 15 | 24 | 6.4 | 16.1 | 0.23 | 8.76 | 8.76 | 100 | 1007.4 |
| 20260502000052 | 15 | 89 | 6.4 | 16.1 | 0.20 | 8.76 | 8.76 | 100 | 1007.7 |
| 20260501235953 | 15 | 65 | 6.4 | 16.1 | 0.20 | 8.76 | 8.76 | 100 | 1007.8 |
| 20260501235852 | 15 | 80 | 6.4 | 16.1 | 0.20 | 8.74 | 8.74 | 100 | 1008.1 |
| 20260501235752 | 15 | 93 | 6.4 | 16.1 | 0.18 | 8.74 | 8.74 | 100 | 1008.2 |
| 20260501235651 | 15 | 80 | 8.0 | 16.1 | 0.18 | 8.74 | 8.74 | 100 | 1008.4 |
| 20260501235552 | 15 | 80 | 8.0 | 16.1 | 0.18 | 8.74 | 8.74 | 100 | 1008.5 |
| 20260501235452 | 15 | 90 | 4.8 | 9.7 | 0.18 | 8.74 | 8.74 | 100 | 1008.7 |
| 20260501235351 | 15 | 80 | 4.8 | 9.7 | 0.18 | 8.71 | 8.71 | 100 | 1008.9 |
| 20260501235252 | 15 | 89 | 4.8 | 9.7 | 0.13 | 8.69 | 8.69 | 100 | 1008.9 |
| 20260501235152 | 15 | 80 | 4.8 | 9.7 | 0.15 | 8.69 | 8.69 | 100 | 1009.1 |
| 20260501235036 | 15 | 73 | 4.8 | 9.7 | 0.15 | 8.69 | 8.69 | 100 | 1009.2 |
| 20260501234931 | 15 | 85 | 3.2 | 9.7 | 0.15 | 8.69 | 8.69 | 100 | 1009.2 |
| 20260501234831 | 15 | 14 | 3.2 | 9.7 | 0.15 | 8.69 | 8.69 | 100 | 1009.2 |
| 20260501234732 | 15 | 35 | 3.2 | 9.7 | 0.15 | 8.66 | 8.66 | 100 | 1009.2 |
| 20260501234627 | 15 | 71 | 4.8 | 9.7 | 0.13 | 8.66 | 8.66 | 100 | 1009.2 |
| 20260501234503 | 15 | 0 | 4.8 | 9.7 | 0.13 | 8.66 | 8.66 | 100 | 1009.3 |
| 20260501234403 | 15 | 68 | 4.8 | 8.0 | 0.13 | 8.64 | 8.64 | 100 | 1009.2 |
| 20260501234304 | 15 | 83 | 4.8 | 11.3 | 0.10 | 8.64 | 8.64 | 100 | 1009.3 |
| 20260501234203 | 15 | 25 | 3.2 | 11.3 | 0.10 | 8.64 | 8.64 | 100 | 1009.3 |
| 20260501234102 | 15 | 13 | 3.2 | 11.3 | 0.10 | 8.64 | 8.64 | 100 | 1009.3 |
| 20260501234003 | 15 | 65 | 3.2 | 11.3 | 0.10 | 8.61 | 8.61 | 100 | 1009.5 |
| 20260501233903 | 15 | 54 | 3.2 | 11.3 | 0.10 | 8.61 | 8.61 | 100 | 1009.6 |
| 20260501233802 | 15 | 305 | 3.2 | 11.3 | 0.10 | 8.59 | 8.59 | 100 | 1009.7 |
| 20260501233702 | 15 | 56 | 3.2 | 11.3 | 0.08 | 8.59 | 8.59 | 100 | 1010.0 |
| 20260501233604 | 15 | 31 | 3.2 | 11.3 | 0.08 | 8.59 | 8.59 | 100 | 1010.1 |
| 20260501233503 | 15 | 355 | 4.8 | 11.3 | 0.08 | 8.59 | 8.59 | 100 | 1010.1 |
| 20260501233402 | 15 | 61 | 3.2 | 11.3 | 0.08 | 8.59 | 8.59 | 100 | 1010.1 |
| 20260501233302 | 15 | 62 | 1.6 | 9.7 | 0.08 | 8.59 | 8.59 | 100 | 1009.9 |
| 20260501233203 | 15 | 62 | 1.6 | 9.7 | 0.08 | 8.59 | 8.59 | 100 | 1009.8 |
| 20260501233101 | 15 | 358 | 1.6 | 9.7 | 0.08 | 8.56 | 8.56 | 100 | 1009.7 |
| 20260501233004 | 15 | 71 | 1.6 | 9.7 | 0.05 | 8.56 | 8.56 | 100 | 1009.7 |
| 20260501232901 | 15 | 69 | 1.6 | 9.7 | 0.08 | 8.56 | 8.56 | 100 | 1009.7 |
| 20260501232803 | 15 | 0 | 3.2 | 9.7 | 0.08 | 8.56 | 8.56 | 100 | 1009.7 |
| 20260501232704 | 15 | 0 | 4.8 | 9.7 | 0.08 | 8.56 | 8.56 | 100 | 1009.7 |
| 20260501232602 | 15 | 350 | 3.2 | 16.1 | 0.08 | 8.56 | 8.56 | 100 | 1009.7 |
| 20260501232505 | 15 | 17 | 3.2 | 16.1 | 0.08 | 8.56 | 8.56 | 100 | 1009.7 |
| 20260501232402 | 15 | 350 | 1.6 | 16.1 | 0.08 | 8.56 | 8.56 | 100 | 1009.6 |
| 20260501232305 | 15 | 56 | 3.2 | 16.1 | 0.10 | 8.56 | 8.56 | 100 | 1009.5 |
| 20260501232201 | 15 | 56 | 3.2 | 16.1 | 0.10 | 8.56 | 8.56 | 100 | 1009.3 |
| 20260501232103 | 15 | 350 | 1.6 | 16.1 | 0.10 | 8.56 | 8.56 | 100 | 1009.1 |
| 20260501232002 | 15 | 0 | 4.8 | 16.1 | 0.10 | 8.56 | 8.56 | 100 | 1008.9 |
| 20260501231904 | 15 | 341 | 6.4 | 16.1 | 0.10 | 8.56 | 8.56 | 100 | 1008.6 |
| 20260501231802 | 15 | 39 | 6.4 | 16.1 | 0.10 | 8.56 | 8.56 | 100 | 1008.3 |
| 20260501231701 | 15 | 42 | 4.8 | 16.1 | 0.13 | 8.56 | 8.56 | 100 | 1008.0 |
| 20260501231603 | 15 | 96 | 3.2 | 14.5 | 0.13 | 8.56 | 8.56 | 100 | 1007.8 |
| 20260501231504 | 15 | 113 | 8.0 | 14.5 | 0.13 | 8.56 | 8.56 | 100 | 1007.6 |
| 20260501231404 | 15 | 113 | 8.0 | 14.5 | 0.13 | 8.56 | 8.56 | 100 | 1007.6 |
| 20260501231303 | 15 | 113 | 8.0 | 14.5 | 0.13 | 8.56 | 8.56 | 100 | 1007.6 |
| 20260501231202 | 15 | 113 | 8.0 | 14.5 | 0.13 | 8.56 | 8.56 | 100 | 1007.5 |
| 20260501231103 | 15 | 113 | 8.0 | 14.5 | 0.15 | 8.56 | 8.56 | 100 | 1007.4 |
| 20260501231003 | 15 | 113 | 8.0 | 14.5 | 0.15 | 8.56 | 8.56 | 100 | 1007.5 |
| 20260501230902 | 15 | 113 | 8.0 | 14.5 | 0.15 | 8.56 | 8.56 | 100 | 1007.5 |
| 20260501230803 | 15 | 87 | 6.4 | 14.5 | 0.15 | 8.56 | 8.56 | 100 | 1007.7 |
| 20260501230704 | 15 | 82 | 6.4 | 9.7 | 0.18 | 8.56 | 8.56 | 100 | 1007.7 |
| 20260501230603 | 15 | 75 | 6.4 | 9.7 | 0.18 | 8.56 | 8.56 | 100 | 1007.7 |
| 20260501230503 | 15 | 93 | 6.4 | 9.7 | 0.18 | 8.56 | 8.56 | 100 | 1007.8 |
| 20260501230403 | 15 | 78 | 4.8 | 9.7 | 0.18 | 8.56 | 8.56 | 100 | 1008.0 |
| 20260501230302 | 15 | 80 | 3.2 | 9.7 | 0.18 | 8.56 | 8.56 | 100 | 1008.0 |
| 20260501230202 | 15 | 114 | 4.8 | 9.7 | 0.18 | 8.56 | 8.56 | 100 | 1007.9 |
| 20260501230003 | 15 | 97 | 4.8 | 14.5 | 0.20 | 8.56 | 8.56 | 100 | 1008.2 |
| 20260501225903 | 15 | 71 | 6.4 | 14.5 | 0.20 | 8.56 | 8.56 | 100 | 1008.3 |
| 20260501225803 | 15 | 82 | 4.8 | 14.5 | 0.20 | 8.56 | 8.56 | 100 | 1008.3 |
| 20260501225702 | 15 | 66 | 6.4 | 14.5 | 0.23 | 8.56 | 8.56 | 100 | 1008.5 |
| 20260501225603 | 15 | 73 | 4.8 | 14.5 | 0.23 | 8.56 | 8.56 | 100 | 1008.5 |
| 20260501225503 | 15 | 97 | 3.2 | 14.5 | 0.23 | 8.56 | 8.56 | 100 | 1008.6 |
| 20260501225403 | 15 | 75 | 4.8 | 14.5 | 0.23 | 8.56 | 8.56 | 100 | 1008.7 |
| 20260501225305 | 15 | 87 | 4.8 | 14.5 | 0.23 | 8.53 | 8.53 | 100 | 1008.8 |
| 20260501225203 | 15 | 85 | 6.4 | 14.5 | 0.20 | 8.53 | 8.53 | 100 | 1008.8 |
| 20260501225103 | 15 | 59 | 6.4 | 14.5 | 0.23 | 8.53 | 8.53 | 100 | 1008.8 |
| 20260501225003 | 15 | 94 | 4.8 | 9.7 | 0.23 | 8.53 | 8.53 | 100 | 1008.8 |
| 20260501224901 | 15 | 76 | 4.8 | 9.7 | 0.23 | 8.53 | 8.53 | 100 | 1008.8 |
| 20260501224803 | 15 | 79 | 4.8 | 9.7 | 0.23 | 8.53 | 8.53 | 100 | 1008.8 |
| 20260501224703 | 15 | 99 | 4.8 | 9.7 | 0.25 | 8.53 | 8.53 | 100 | 1008.7 |
| 20260501224604 | 15 | 54 | 6.4 | 11.3 | 0.25 | 8.53 | 8.53 | 100 | 1008.7 |
| 20260501224504 | 15 | 86 | 4.8 | 11.3 | 0.25 | 8.53 | 8.53 | 100 | 1008.7 |
| 20260501224403 | 15 | 86 | 4.8 | 14.5 | 0.28 | 8.53 | 8.53 | 100 | 1008.7 |
| 20260501224303 | 15 | 86 | 4.8 | 14.5 | 0.28 | 8.53 | 8.53 | 100 | 1008.6 |
| 20260501224203 | 15 | 86 | 4.8 | 14.5 | 0.28 | 8.53 | 8.53 | 100 | 1008.5 |
| 20260501224103 | 15 | 87 | 6.4 | 16.1 | 0.28 | 8.53 | 8.53 | 100 | 1008.5 |
| 20260501224004 | 15 | 68 | 6.4 | 16.1 | 0.28 | 8.51 | 8.51 | 100 | 1008.3 |
| 20260501223903 | 15 | 47 | 6.4 | 16.1 | 0.25 | 8.51 | 8.51 | 100 | 1008.3 |
| 20260501223800 | 15 | 52 | 8.0 | 16.1 | 0.25 | 8.51 | 8.51 | 100 | 1008.4 |
| 20260501223649 | 15 | 97 | 6.4 | 16.1 | 0.28 | 8.51 | 8.51 | 100 | 1008.4 |
| 20260501223548 | 15 | 41 | 6.4 | 16.1 | 0.28 | 8.51 | 8.51 | 100 | 1008.5 |
| 20260501223448 | 15 | 82 | 8.0 | 16.1 | 0.28 | 8.51 | 8.51 | 100 | 1008.7 |
| 20260501223349 | 15 | 58 | 8.0 | 16.1 | 0.28 | 8.51 | 8.51 | 100 | 1008.5 |
| 20260501223248 | 15 | 25 | 6.4 | 17.7 | 0.28 | 8.51 | 8.51 | 100 | 1008.5 |
| 20260501223148 | 15 | 85 | 8.0 | 17.7 | 0.30 | 8.51 | 8.51 | 100 | 1008.5 |
| 20260501223048 | 15 | 44 | 8.0 | 17.7 | 0.30 | 8.51 | 8.51 | 100 | 1008.3 |
| 20260501222946 | 15 | 3 | 6.4 | 17.7 | 0.28 | 8.46 | 8.46 | 100 | 1008.4 |
| 20260501222847 | 15 | 3 | 6.4 | 17.7 | 0.30 | 8.46 | 8.46 | 100 | 1008.5 |
| 20260501222747 | 15 | 3 | 6.4 | 17.7 | 0.30 | 8.46 | 8.46 | 100 | 1008.5 |
| 20260501222648 | 15 | 3 | 6.4 | 17.7 | 0.30 | 8.46 | 8.46 | 100 | 1008.5 |
| 20260501222546 | 15 | 3 | 6.4 | 17.7 | 0.30 | 8.46 | 8.46 | 100 | 1008.6 |
| 20260501222447 | 15 | 3 | 6.4 | 17.7 | 0.30 | 8.46 | 8.46 | 100 | 1008.5 |
| 20260501222347 | 15 | 42 | 8.0 | 17.7 | 0.28 | 8.46 | 8.46 | 100 | 1008.5 |
| 20260501222245 | 15 | 314 | 4.8 | 14.5 | 0.30 | 8.46 | 8.46 | 100 | 1008.6 |
| 20260501222145 | 15 | 87 | 3.2 | 11.3 | 0.30 | 8.46 | 8.46 | 100 | 1008.9 |
| 20260501222047 | 16 | 63 | 4.8 | 11.3 | 0.30 | 8.46 | 8.46 | 100 | 1008.9 |
| 20260501221945 | 16 | 0 | 4.8 | 11.3 | 0.30 | 8.46 | 8.46 | 100 | 1009.0 |
| 20260501221846 | 16 | 27 | 4.8 | 11.3 | 0.30 | 8.46 | 8.46 | 100 | 1009.1 |
| 20260501221746 | 16 | 56 | 4.8 | 11.3 | 0.33 | 8.43 | 8.43 | 100 | 1009.0 |
| 20260501221646 | 16 | 82 | 3.2 | 11.3 | 0.30 | 8.43 | 8.43 | 100 | 1009.0 |
| 20260501221547 | 15 | 0 | 1.6 | 11.3 | 0.30 | 8.43 | 8.43 | 100 | 1009.0 |
| 20260501221446 | 15 | 0 | 3.2 | 11.3 | 0.30 | 8.43 | 8.43 | 100 | 1009.0 |
| 20260501221346 | 15 | 347 | 6.4 | 11.3 | 0.33 | 8.43 | 8.43 | 100 | 1009.0 |
| 20260501221246 | 15 | 104 | 6.4 | 11.3 | 0.33 | 8.43 | 8.43 | 100 | 1008.9 |
| 20260501221146 | 15 | 8 | 6.4 | 11.3 | 0.33 | 8.41 | 8.41 | 100 | 1008.8 |
| 20260501221046 | 15 | 355 | 4.8 | 11.3 | 0.30 | 8.41 | 8.41 | 100 | 1008.7 |
| 20260501220945 | 15 | 0 | 6.4 | 11.3 | 0.33 | 8.41 | 8.41 | 100 | 1008.7 |
| 20260501220846 | 15 | 59 | 6.4 | 11.3 | 0.38 | 8.41 | 8.41 | 100 | 1008.7 |
| 20260501220744 | 15 | 47 | 6.4 | 11.3 | 0.38 | 8.38 | 8.38 | 100 | 1008.7 |
| 20260501220645 | 15 | 51 | 6.4 | 11.3 | 0.36 | 8.38 | 8.38 | 100 | 1008.6 |
| 20260501220547 | 15 | 83 | 4.8 | 8.0 | 0.36 | 8.36 | 8.36 | 100 | 1008.5 |
| 20260501220446 | 15 | 83 | 4.8 | 8.0 | 0.36 | 8.36 | 8.36 | 100 | 1008.5 |
| 20260501220346 | 15 | 83 | 4.8 | 8.0 | 0.36 | 8.36 | 8.36 | 100 | 1008.6 |
| 20260501220246 | 15 | 83 | 4.8 | 8.0 | 0.36 | 8.36 | 8.36 | 100 | 1008.6 |
| 20260501220146 | 15 | 37 | 4.8 | 8.0 | 0.33 | 8.36 | 8.36 | 100 | 1008.7 |
| 20260501220046 | 15 | 76 | 4.8 | 8.0 | 0.33 | 8.36 | 8.36 | 100 | 1008.8 |
| 20260501215946 | 15 | 11 | 3.2 | 8.0 | 0.33 | 8.36 | 8.36 | 100 | 1009.0 |
| 20260501215846 | 15 | 7 | 3.2 | 8.0 | 0.33 | 8.33 | 8.33 | 100 | 1009.1 |
| 20260501215731 | 15 | 6 | 3.2 | 8.0 | 0.36 | 8.33 | 8.33 | 100 | 1009.2 |
| 20260501215631 | 15 | 54 | 1.6 | 8.0 | 0.33 | 8.33 | 8.33 | 100 | 1009.2 |
| 20260501215533 | 15 | 1 | 4.8 | 8.0 | 0.33 | 8.31 | 8.31 | 100 | 1009.2 |
| 20260501215432 | 15 | 51 | 4.8 | 8.0 | 0.33 | 8.31 | 8.31 | 100 | 1009.2 |
| 20260501215332 | 15 | 51 | 4.8 | 8.0 | 0.33 | 8.31 | 8.31 | 100 | 1009.1 |
| 20260501215203 | 15 | 51 | 4.8 | 8.0 | 0.33 | 8.31 | 8.31 | 100 | 1009.1 |
| 20260501215101 | 15 | 28 | 3.2 | 8.0 | 0.30 | 8.31 | 8.31 | 100 | 1009.1 |
| 20260501215002 | 15 | 97 | 3.2 | 6.4 | 0.30 | 8.31 | 8.31 | 100 | 1009.1 |
| 20260501214903 | 15 | 0 | 1.6 | 6.4 | 0.30 | 8.31 | 8.31 | 100 | 1009.0 |
| 20260501214802 | 15 | 72 | 3.2 | 6.4 | 0.30 | 8.28 | 8.28 | 100 | 1008.9 |
| 20260501214703 | 15 | 41 | 3.2 | 8.0 | 0.30 | 8.28 | 8.28 | 100 | 1008.9 |
| 20260501214603 | 15 | 0 | 3.2 | 8.0 | 0.30 | 8.28 | 8.28 | 100 | 1008.9 |
| 20260501214504 | 15 | 34 | 3.2 | 8.0 | 0.30 | 8.26 | 8.26 | 100 | 1008.8 |
| 20260501214403 | 15 | 73 | 3.2 | 8.0 | 0.28 | 8.26 | 8.26 | 100 | 1008.8 |
| 20260501214304 | 15 | 73 | 3.2 | 8.0 | 0.28 | 8.26 | 8.26 | 100 | 1008.8 |
| 20260501214203 | 15 | 73 | 3.2 | 11.3 | 0.28 | 8.26 | 8.26 | 100 | 1008.8 |
| 20260501214102 | 15 | 73 | 3.2 | 11.3 | 0.28 | 8.26 | 8.26 | 100 | 1008.7 |
| 20260501214004 | 15 | 348 | 4.8 | 11.3 | 0.28 | 8.26 | 8.26 | 100 | 1008.7 |
| 20260501213904 | 15 | 48 | 3.2 | 11.3 | 0.28 | 8.26 | 8.26 | 100 | 1008.5 |
| 20260501213803 | 15 | 11 | 3.2 | 11.3 | 0.28 | 8.23 | 8.23 | 100 | 1008.4 |
| 20260501213704 | 15 | 38 | 3.2 | 11.3 | 0.30 | 8.23 | 8.23 | 100 | 1008.3 |
| 20260501213603 | 16 | 71 | 3.2 | 11.3 | 0.30 | 8.23 | 8.23 | 100 | 1008.2 |
| 20260501213503 | 16 | 65 | 3.2 | 11.3 | 0.30 | 8.23 | 8.23 | 100 | 1008.0 |
| 20260501213403 | 16 | 63 | 6.4 | 11.3 | 0.30 | 8.23 | 8.23 | 100 | 1007.8 |
| 20260501213304 | 16 | 59 | 8.0 | 11.3 | 0.30 | 8.20 | 8.20 | 100 | 1007.7 |
| 20260501213204 | 16 | 59 | 4.8 | 11.3 | 0.28 | 8.20 | 8.20 | 100 | 1007.6 |
| 20260501213103 | 16 | 78 | 6.4 | 11.3 | 0.28 | 8.20 | 8.20 | 100 | 1007.8 |
| 20260501213005 | 16 | 75 | 6.4 | 11.3 | 0.28 | 8.18 | 8.18 | 100 | 1007.8 |
| 20260501212903 | 16 | 62 | 4.8 | 14.5 | 0.25 | 8.18 | 8.18 | 100 | 1007.9 |
| 20260501212802 | 16 | 63 | 4.8 | 14.5 | 0.25 | 8.18 | 8.18 | 100 | 1008.0 |
| 20260501212702 | 15 | 1 | 4.8 | 14.5 | 0.25 | 8.18 | 8.18 | 100 | 1008.0 |
| 20260501212603 | 15 | 62 | 3.2 | 14.5 | 0.28 | 8.18 | 8.18 | 100 | 1008.0 |
| 20260501212504 | 15 | 45 | 3.2 | 14.5 | 0.28 | 8.18 | 8.18 | 100 | 1008.0 |
| 20260501212402 | 15 | 55 | 4.8 | 14.5 | 0.28 | 8.15 | 8.15 | 100 | 1007.9 |
| 20260501212305 | 15 | 17 | 4.8 | 17.7 | 0.28 | 8.15 | 8.15 | 100 | 1007.8 |
| 20260501212204 | 15 | 28 | 4.8 | 17.7 | 0.28 | 8.15 | 8.15 | 100 | 1007.6 |
| 20260501212104 | 15 | 71 | 6.4 | 17.7 | 0.28 | 8.15 | 8.15 | 100 | 1007.4 |
| 20260501212004 | 15 | 21 | 6.4 | 17.7 | 0.28 | 8.15 | 8.15 | 100 | 1007.4 |
| 20260501211902 | 15 | 55 | 4.8 | 17.7 | 0.28 | 8.13 | 8.13 | 100 | 1007.3 |
| 20260501211803 | 15 | 73 | 4.8 | 17.7 | 0.25 | 8.13 | 8.13 | 100 | 1007.2 |
| 20260501211702 | 15 | 52 | 4.8 | 17.7 | 0.25 | 8.13 | 8.13 | 100 | 1007.1 |
| 20260501211602 | 16 | 75 | 6.4 | 17.7 | 0.25 | 8.13 | 8.13 | 100 | 1007.0 |
| 20260501211502 | 16 | 63 | 8.0 | 17.7 | 0.25 | 8.13 | 8.13 | 100 | 1006.9 |
| 20260501211403 | 16 | 73 | 6.4 | 17.7 | 0.25 | 8.10 | 8.10 | 100 | 1007.0 |
| 20260501211303 | 16 | 76 | 3.2 | 9.7 | 0.23 | 8.10 | 8.10 | 100 | 1007.0 |
| 20260501211204 | 16 | 78 | 4.8 | 9.7 | 0.23 | 8.08 | 8.08 | 100 | 1007.1 |
| 20260501211103 | 16 | 68 | 4.8 | 9.7 | 0.23 | 8.08 | 8.08 | 100 | 1007.2 |
| 20260501211004 | 16 | 83 | 3.2 | 4.8 | 0.20 | 8.08 | 8.08 | 100 | 1007.4 |
| 20260501210902 | 16 | 56 | 1.6 | 6.4 | 0.20 | 8.08 | 8.08 | 100 | 1007.5 |
| 20260501210804 | 16 | 38 | 1.6 | 6.4 | 0.15 | 8.03 | 8.03 | 100 | 1007.5 |
| 20260501210703 | 15 | 65 | 3.2 | 6.4 | 0.15 | 8.03 | 8.03 | 100 | 1007.6 |
| 20260501210603 | 15 | 65 | 3.2 | 11.3 | 0.18 | 8.03 | 8.03 | 100 | 1007.7 |
| 20260501210505 | 15 | 65 | 3.2 | 11.3 | 0.18 | 8.03 | 8.03 | 100 | 1007.9 |
| 20260501210403 | 15 | 65 | 3.2 | 11.3 | 0.18 | 8.03 | 8.03 | 100 | 1008.1 |
| 20260501210303 | 16 | 44 | 1.6 | 11.3 | 0.18 | 8.03 | 8.03 | 100 | 1008.3 |
| 20260501210204 | 16 | 69 | 3.2 | 11.3 | 0.18 | 8.03 | 8.03 | 100 | 1008.3 |
| 20260501210103 | 16 | 69 | 3.2 | 11.3 | 0.18 | 8.03 | 8.03 | 100 | 1008.2 |
| 20260501210004 | 16 | 69 | 4.8 | 11.3 | 0.18 | 8.03 | 8.03 | 100 | 1008.2 |
| 20260501205902 | 16 | 75 | 3.2 | 11.3 | 0.18 | 8.00 | 8.00 | 100 | 1008.1 |
| 20260501205804 | 16 | 73 | 3.2 | 11.3 | 0.18 | 8.00 | 8.00 | 100 | 1008.0 |
| 20260501205703 | 16 | 44 | 3.2 | 11.3 | 0.18 | 8.00 | 8.00 | 100 | 1008.0 |
| 20260501205604 | 16 | 4 | 3.2 | 11.3 | 0.18 | 8.00 | 8.00 | 100 | 1008.2 |
| 20260501205504 | 16 | 72 | 3.2 | 11.3 | 0.18 | 8.00 | 8.00 | 100 | 1008.3 |
| 20260501205402 | 16 | 72 | 3.2 | 11.3 | 0.18 | 8.00 | 8.00 | 100 | 1008.3 |
| 20260501205306 | 16 | 39 | 3.2 | 11.3 | 0.18 | 8.00 | 8.00 | 100 | 1008.3 |
| 20260501205203 | 16 | 6 | 4.8 | 11.3 | 0.18 | 8.00 | 8.00 | 100 | 1008.4 |
| 20260501205104 | 16 | 0 | 4.8 | 11.3 | 0.18 | 8.00 | 8.00 | 100 | 1008.6 |
| 20260501205002 | 16 | 11 | 4.8 | 11.3 | 0.18 | 8.00 | 8.00 | 100 | 1008.6 |
| 20260501204903 | 16 | 313 | 3.2 | 9.7 | 0.20 | 8.00 | 8.00 | 100 | 1008.7 |
| 20260501204803 | 16 | 14 | 4.8 | 9.7 | 0.20 | 7.98 | 7.98 | 100 | 1008.6 |
| 20260501204703 | 16 | 353 | 4.8 | 11.3 | 0.18 | 7.98 | 7.98 | 100 | 1008.5 |
| 20260501204604 | 16 | 286 | 3.2 | 11.3 | 0.28 | 7.98 | 7.98 | 100 | 1008.3 |
| 20260501204504 | 16 | 31 | 3.2 | 11.3 | 0.28 | 7.98 | 7.98 | 100 | 1008.0 |
| 20260501204403 | 16 | 30 | 3.2 | 11.3 | 0.28 | 7.98 | 7.98 | 100 | 1007.9 |
| 20260501204302 | 16 | 27 | 4.8 | 11.3 | 0.28 | 7.98 | 7.98 | 100 | 1007.8 |
| 20260501204203 | 16 | 7 | 4.8 | 11.3 | 0.28 | 7.98 | 7.98 | 100 | 1007.7 |
| 20260501204104 | 16 | 48 | 6.4 | 11.3 | 0.28 | 7.98 | 7.98 | 100 | 1007.6 |
| 20260501204004 | 16 | 71 | 6.4 | 11.3 | 0.28 | 7.98 | 7.98 | 100 | 1007.4 |
| 20260501203902 | 16 | 282 | 4.8 | 11.3 | 0.28 | 7.92 | 7.92 | 100 | 1007.3 |
| 20260501203803 | 16 | 0 | 6.4 | 11.3 | 0.28 | 7.92 | 7.92 | 100 | 1007.3 |
| 20260501203702 | 16 | 20 | 6.4 | 9.7 | 0.23 | 7.92 | 7.92 | 100 | 1007.2 |
| 20260501203603 | 16 | 16 | 3.2 | 9.7 | 0.23 | 7.92 | 7.92 | 100 | 1007.3 |
| 20260501203503 | 16 | 16 | 3.2 | 9.7 | 0.23 | 7.92 | 7.92 | 100 | 1007.4 |
| 20260501203403 | 16 | 16 | 3.2 | 9.7 | 0.23 | 7.92 | 7.92 | 100 | 1007.4 |
| 20260501203303 | 16 | 16 | 3.2 | 9.7 | 0.23 | 7.92 | 7.92 | 100 | 1007.4 |
| 20260501203203 | 16 | 16 | 3.2 | 9.7 | 0.23 | 7.92 | 7.92 | 100 | 1007.4 |
| 20260501203103 | 16 | 61 | 3.2 | 9.7 | 0.23 | 7.92 | 7.92 | 100 | 1007.4 |
| 20260501203003 | 16 | 24 | 4.8 | 9.7 | 0.23 | 7.92 | 7.92 | 100 | 1007.5 |
| 20260501202903 | 16 | 66 | 3.2 | 8.0 | 0.23 | 7.92 | 7.92 | 100 | 1007.5 |
| 20260501202801 | 16 | 41 | 3.2 | 8.0 | 0.23 | 7.92 | 7.92 | 100 | 1007.6 |
| 20260501202702 | 16 | 0 | 3.2 | 8.0 | 0.25 | 7.90 | 7.90 | 100 | 1007.6 |
| 20260501202602 | 16 | 42 | 3.2 | 16.1 | 0.23 | 7.90 | 7.90 | 100 | 1007.7 |
| 20260501202504 | 16 | 62 | 3.2 | 16.1 | 0.23 | 7.90 | 7.90 | 100 | 1007.7 |
| 20260501202404 | 16 | 66 | 3.2 | 16.1 | 0.25 | 7.87 | 7.87 | 100 | 1007.7 |
| 20260501202306 | 16 | 7 | 3.2 | 16.1 | 0.23 | 7.87 | 7.87 | 100 | 1007.8 |
| 20260501202203 | 16 | 7 | 3.2 | 16.1 | 0.23 | 7.87 | 7.87 | 100 | 1007.8 |
| 20260501202103 | 16 | 7 | 3.2 | 16.1 | 0.25 | 7.87 | 7.87 | 100 | 1007.6 |
| 20260501202003 | 16 | 7 | 3.2 | 16.1 | 0.25 | 7.87 | 7.87 | 100 | 1007.4 |
| 20260501201901 | 16 | 55 | 3.2 | 16.1 | 0.25 | 7.87 | 7.87 | 100 | 1007.3 |
| 20260501201803 | 16 | 75 | 4.8 | 16.1 | 0.33 | 7.87 | 7.87 | 100 | 1007.3 |
| 20260501201703 | 16 | 47 | 3.2 | 8.0 | 0.33 | 7.87 | 7.87 | 100 | 1007.3 |
| 20260501201603 | 16 | 56 | 3.2 | 9.7 | 0.33 | 7.87 | 7.87 | 100 | 1007.5 |
| 20260501201504 | 16 | 45 | 4.8 | 9.7 | 0.33 | 7.87 | 7.87 | 100 | 1007.6 |
| 20260501201403 | 16 | 41 | 4.8 | 9.7 | 0.33 | 7.87 | 7.87 | 100 | 1007.6 |
| 20260501201303 | 16 | 32 | 3.2 | 14.5 | 0.33 | 7.87 | 7.87 | 100 | 1007.4 |
| 20260501201203 | 16 | 48 | 4.8 | 14.5 | 0.33 | 7.87 | 7.87 | 100 | 1007.2 |
| 20260501201104 | 16 | 48 | 4.8 | 14.5 | 0.33 | 7.87 | 7.87 | 100 | 1007.1 |
| 20260501200943 | 16 | 48 | 4.8 | 14.5 | 0.36 | 7.87 | 7.87 | 100 | 1007.1 |
| 20260501200844 | 16 | 48 | 4.8 | 14.5 | 0.36 | 7.87 | 7.87 | 100 | 1007.1 |
| 20260501200742 | 16 | 66 | 4.8 | 14.5 | 0.38 | 7.87 | 7.87 | 100 | 1007.1 |
| 20260501200644 | 16 | 35 | 3.2 | 14.5 | 0.36 | 7.85 | 7.85 | 100 | 1006.9 |
| 20260501200542 | 16 | 93 | 4.8 | 14.5 | 0.36 | 7.85 | 7.85 | 100 | 1006.6 |
| 20260501200444 | 16 | 23 | 6.4 | 14.5 | 0.38 | 7.85 | 7.85 | 100 | 1006.5 |
| 20260501200343 | 16 | 92 | 4.8 | 9.7 | 0.38 | 7.85 | 7.85 | 100 | 1006.5 |
| 20260501200244 | 16 | 25 | 4.8 | 9.7 | 0.41 | 7.85 | 7.85 | 100 | 1006.8 |
| 20260501200144 | 16 | 89 | 4.8 | 9.7 | 0.41 | 7.85 | 7.85 | 100 | 1007.0 |
| 20260501200044 | 16 | 76 | 3.2 | 16.1 | 0.46 | 7.85 | 7.85 | 100 | 1007.2 |
| 20260501195943 | 16 | 47 | 3.2 | 16.1 | 0.46 | 7.85 | 7.85 | 100 | 1007.4 |
| 20260501195843 | 16 | 47 | 3.2 | 16.1 | 0.43 | 7.82 | 7.82 | 100 | 1007.4 |
| 20260501195743 | 16 | 0 | 3.2 | 16.1 | 0.43 | 7.82 | 7.82 | 100 | 1007.4 |
| 20260501195643 | 16 | 357 | 3.2 | 16.1 | 0.43 | 7.82 | 7.82 | 100 | 1007.3 |
| 20260501195543 | 16 | 73 | 3.2 | 16.1 | 0.46 | 7.82 | 7.82 | 100 | 1007.3 |
| 20260501195444 | 16 | 79 | 3.2 | 16.1 | 0.48 | 7.82 | 7.82 | 100 | 1007.2 |
| 20260501195342 | 16 | 72 | 3.2 | 16.1 | 0.48 | 7.82 | 7.82 | 100 | 1007.1 |
| 20260501195243 | 16 | 48 | 4.8 | 16.1 | 0.48 | 7.82 | 7.82 | 100 | 1006.8 |
| 20260501195143 | 16 | 79 | 6.4 | 16.1 | 0.48 | 7.82 | 7.82 | 100 | 1006.6 |
| 20260501195042 | 16 | 73 | 3.2 | 9.7 | 0.51 | 7.82 | 7.82 | 100 | 1006.4 |
| 20260501194943 | 16 | 48 | 1.6 | 4.8 | 0.51 | 7.80 | 7.80 | 100 | 1006.4 |
| 20260501194842 | 16 | 83 | 3.2 | 4.8 | 0.48 | 7.80 | 7.80 | 100 | 1006.4 |
| 20260501194743 | 16 | 63 | 3.2 | 4.8 | 0.51 | 7.80 | 7.80 | 100 | 1006.6 |
| 20260501194643 | -17 | 68 | 3.2 | 3.2 | 0.51 | 7.70 | 7.70 | 1006.7 | |
| 20260501194543 | -17 | 0.0 | 0.0 | 0.43 | 7.67 | 7.67 | 1006.7 | ||
| 20260501194443 | -17 | 0.0 | 0.0 | 0.43 | 7.67 | 7.67 | 1006.8 | ||
| 20260501194343 | -17 | 0.0 | 0.0 | 0.46 | 7.67 | 7.67 | 1006.8 | ||
| 20260501194242 | -17 | 0.0 | 0.0 | 0.48 | 7.67 | 7.67 | 1006.7 | ||
| 20260501194141 | -17 | 0.0 | 0.0 | 0.48 | 7.67 | 7.67 | 1006.8 | ||
| 20260501194042 | -17 | 0.0 | 0.0 | 0.48 | 7.67 | 7.67 | 1006.8 | ||
| 20260501193940 | -17 | 0.0 | 0.0 | 0.61 | 7.67 | 7.67 | 1006.8 | ||
| 20260501193842 | -17 | 0.0 | 0.0 | 0.61 | 7.67 | 7.67 | 1006.8 | ||
| 20260501193739 | -17 | 0.0 | 0.0 | 0.61 | 7.67 | 7.67 | 1006.8 | ||
| 20260501193639 | 16 | 87 | 6.4 | 9.7 | 0.61 | 7.67 | 7.67 | 100 | 1006.9 |
| 20260501193540 | 16 | 87 | 6.4 | 9.7 | 0.61 | 7.67 | 7.67 | 100 | 1006.9 |
| 20260501193439 | 16 | 87 | 6.4 | 9.7 | 0.61 | 7.67 | 7.67 | 100 | 1006.9 |
| 20260501193339 | 16 | 87 | 6.4 | 9.7 | 0.61 | 7.67 | 7.67 | 100 | 1006.8 |
| 20260501193237 | 16 | 87 | 6.4 | 11.3 | 0.61 | 7.67 | 7.67 | 100 | 1006.9 |
| 20260501193137 | 16 | 87 | 6.4 | 11.3 | 0.61 | 7.67 | 7.67 | 100 | 1006.8 |
| 20260501193038 | 16 | 87 | 6.4 | 11.3 | 0.61 | 7.67 | 7.67 | 100 | 1006.7 |
| 20260501192937 | 16 | 87 | 6.4 | 11.3 | 0.64 | 7.67 | 7.67 | 100 | 1006.6 |
| 20260501192837 | 16 | 87 | 6.4 | 11.3 | 0.64 | 7.67 | 7.67 | 100 | 1006.4 |
| 20260501192737 | 16 | 87 | 6.4 | 11.3 | 0.64 | 7.67 | 7.67 | 100 | 1006.4 |
| 20260501192637 | 16 | 48 | 3.2 | 11.3 | 0.61 | 7.67 | 7.67 | 100 | 1006.3 |
| 20260501192537 | 16 | 65 | 4.8 | 11.3 | 0.64 | 7.67 | 7.67 | 100 | 1006.2 |
| 20260501192438 | 16 | 66 | 4.8 | 11.3 | 0.64 | 7.65 | 7.65 | 100 | 1006.4 |
| 20260501192338 | 16 | 30 | 6.4 | 11.3 | 0.66 | 7.65 | 7.65 | 100 | 1006.4 |
| 20260501192237 | 16 | 58 | 4.8 | 9.7 | 0.66 | 7.65 | 7.65 | 100 | 1006.6 |
| 20260501192138 | 16 | 73 | 3.2 | 9.7 | 0.66 | 7.62 | 7.62 | 100 | 1006.5 |
| 20260501192037 | 16 | 51 | 3.2 | 4.8 | 0.64 | 7.62 | 7.62 | 100 | 1006.6 |
| 20260501191937 | 16 | 85 | 3.2 | 4.8 | 0.66 | 7.54 | 7.54 | 100 | 1006.5 |
| 20260501191837 | 16 | 76 | 1.6 | 4.8 | 0.66 | 7.54 | 7.54 | 100 | 1006.4 |
| 20260501191733 | 16 | 72 | 3.2 | 4.8 | 0.58 | 7.54 | 7.54 | 100 | 1006.4 |
| 20260501191634 | 16 | 72 | 3.2 | 6.4 | 0.58 | 7.54 | 7.54 | 100 | 1006.4 |
| 20260501191534 | 16 | 72 | 3.2 | 6.4 | 0.58 | 7.54 | 7.54 | 100 | 1006.5 |
| 20260501191434 | 16 | 72 | 3.2 | 6.4 | 0.58 | 7.54 | 7.54 | 100 | 1006.5 |
| 20260501191334 | 16 | 72 | 3.2 | 6.4 | 0.61 | 7.54 | 7.54 | 100 | 1006.4 |
| 20260501191234 | 16 | 72 | 3.2 | 8.0 | 0.61 | 7.54 | 7.54 | 100 | 1006.5 |
| 20260501191134 | 16 | 69 | 3.2 | 11.3 | 0.61 | 7.54 | 7.54 | 100 | 1006.5 |
| 20260501191034 | 16 | 71 | 3.2 | 11.3 | 0.58 | 7.49 | 7.49 | 100 | 1006.5 |
| 20260501190934 | 16 | 7 | 3.2 | 11.3 | 0.58 | 7.49 | 7.49 | 100 | 1006.5 |
| 20260501190831 | 16 | 21 | 3.2 | 11.3 | 0.58 | 7.49 | 7.49 | 100 | 1006.7 |